Time,TemperatureF,DewpointF,PressureIn,WindDirection,WindDirectionDegrees,WindSpeedMPH,WindSpeedGustMPH,Humidity,HourlyPrecipIn,Conditions,Clouds,dailyrainin,SoftwareType,DateUTC
2013-07-20 00:00:00,85.1,73.8,29.83,SW,219,0.0,1.0,69,0.00,,,0.00,Wunderground v.1.15,2013-07-20 04:00:00,
2013-07-20 00:01:00,85.1,73.8,29.83,SW,219,0.0,1.0,69,0.00,,,0.00,Wunderground v.1.15,2013-07-20 04:01:00,
2013-07-20 00:02:00,85.1,73.8,29.83,SW,219,0.0,1.0,69,0.00,,,0.00,Wunderground v.1.15,2013-07-20 04:02:00,
2013-07-20 00:03:00,85.1,73.8,29.83,SW,219,0.0,1.0,69,0.00,,,0.00,Wunderground v.1.15,2013-07-20 04:03:00,
2013-07-20 00:06:00,85.1,73.8,29.83,ESE,112,1.0,4.0,69,0.00,,,0.00,Wunderground v.1.15,2013-07-20 04:06:00,
2013-07-20 00:07:00,85.1,73.8,29.83,SW,233,0.0,4.0,69,0.00,,,0.00,Wunderground v.1.15,2013-07-20 04:07:00,
2013-07-20 00:08:00,85.1,73.8,29.83,SW,233,0.0,1.0,69,0.00,,,0.00,Wunderground v.1.15,2013-07-20 04:08:00,
2013-07-20 00:09:00,85.1,73.8,29.83,SE,134,2.0,2.0,69,0.00,,,0.00,Wunderground v.1.15,2013-07-20 04:09:00,
2013-07-20 00:13:00,85.1,73.8,29.83,West,263,1.0,2.0,69,0.00,,,0.00,Wunderground v.1.15,2013-07-20 04:13:00,
2013-07-20 00:14:00,85.1,73.8,29.83,West,264,0.0,2.0,69,0.00,,,0.00,Wunderground v.1.15,2013-07-20 04:14:00,
2013-07-20 00:15:00,85.1,73.8,29.83,West,264,3.0,3.0,69,0.00,,,0.00,Wunderground v.1.15,2013-07-20 04:15:00,
2013-07-20 00:16:00,85.1,73.8,29.83,West,267,0.0,3.0,69,0.00,,,0.00,Wunderground v.1.15,2013-07-20 04:16:00,
2013-07-20 00:18:00,85.1,73.8,29.83,West,267,0.0,1.0,69,0.00,,,0.00,Wunderground v.1.15,2013-07-20 04:18:00,
2013-07-20 00:19:00,85.1,73.8,29.83,West,267,1.0,1.0,69,0.00,,,0.00,Wunderground v.1.15,2013-07-20 04:19:00,
2013-07-20 00:20:00,85.1,73.8,29.83,West,267,0.0,1.0,69,0.00,,,0.00,Wunderground v.1.15,2013-07-20 04:20:00,
2013-07-20 00:21:00,85.1,73.8,29.83,SW,230,3.0,3.0,69,0.00,,,0.00,Wunderground v.1.15,2013-07-20 04:21:00,
2013-07-20 00:22:00,85.1,73.8,29.83,SW,232,0.0,3.0,69,0.00,,,0.00,Wunderground v.1.15,2013-07-20 04:22:00,
2013-07-20 00:23:00,85.1,73.8,29.83,SE,124,0.0,3.0,69,0.00,,,0.00,Wunderground v.1.15,2013-07-20 04:23:00,
2013-07-20 00:24:00,85.1,73.8,29.83,West,263,2.0,3.0,69,0.00,,,0.00,Wunderground v.1.15,2013-07-20 04:24:00,
2013-07-20 00:27:00,85.1,73.8,29.83,West,261,6.0,6.0,69,0.00,,,0.00,Wunderground v.1.15,2013-07-20 04:27:00,
2013-07-20 00:30:00,85.1,73.8,29.83,West,263,0.0,1.0,69,0.00,,,0.00,Wunderground v.1.15,2013-07-20 04:30:00,
2013-07-20 00:31:00,84.9,74.0,29.83,West,275,2.0,2.0,70,0.00,,,0.00,Wunderground v.1.15,2013-07-20 04:31:00,
2013-07-20 00:32:00,84.9,74.0,29.83,West,277,0.0,2.0,70,0.00,,,0.00,Wunderground v.1.15,2013-07-20 04:32:00,
2013-07-20 00:33:00,84.9,74.0,29.83,West,277,0.0,2.0,70,0.00,,,0.00,Wunderground v.1.15,2013-07-20 04:33:00,
2013-07-20 00:36:00,84.9,74.0,29.83,WSW,247,1.0,2.0,70,0.00,,,0.00,Wunderground v.1.15,2013-07-20 04:36:00,
2013-07-20 00:37:00,84.9,74.0,29.83,West,259,2.0,2.0,70,0.00,,,0.00,Wunderground v.1.15,2013-07-20 04:37:00,
2013-07-20 00:39:00,84.9,74.0,29.84,WSW,240,0.0,1.0,70,0.00,,,0.00,Wunderground v.1.15,2013-07-20 04:39:00,
2013-07-20 00:41:00,84.9,74.0,29.84,SW,232,1.0,3.0,70,0.00,,,0.00,Wunderground v.1.15,2013-07-20 04:41:00,
2013-07-20 00:44:00,84.9,74.0,29.84,West,267,1.0,3.0,70,0.00,,,0.00,Wunderground v.1.15,2013-07-20 04:44:00,
2013-07-20 00:45:00,84.9,74.0,29.84,West,267,1.0,3.0,70,0.00,,,0.00,Wunderground v.1.15,2013-07-20 04:45:00,
2013-07-20 00:48:00,84.7,73.8,29.84,NW,319,0.0,1.0,70,0.00,,,0.00,Wunderground v.1.15,2013-07-20 04:48:00,
2013-07-20 00:51:00,84.7,74.3,29.84,WNW,292,0.0,1.0,71,0.00,,,0.00,Wunderground v.1.15,2013-07-20 04:51:00,
2013-07-20 00:52:00,84.7,74.3,29.84,WNW,293,0.0,1.0,71,0.00,,,0.00,Wunderground v.1.15,2013-07-20 04:52:00,
2013-07-20 00:57:00,84.7,74.3,29.84,West,280,1.0,4.0,71,0.00,,,0.00,Wunderground v.1.15,2013-07-20 04:57:00,
2013-07-20 00:59:00,84.5,74.1,29.84,WNW,303,1.0,1.0,71,0.00,,,0.00,Wunderground v.1.15,2013-07-20 04:59:00,
2013-07-20 01:01:00,84.5,74.1,29.84,West,269,5.0,5.0,71,0.00,,,0.00,Wunderground v.1.15,2013-07-20 05:01:00,
2013-07-20 01:03:00,84.5,74.1,29.84,WSW,257,2.0,5.0,71,0.00,,,0.00,Wunderground v.1.15,2013-07-20 05:03:00,
2013-07-20 01:05:00,84.5,74.1,29.84,NNE,15,3.0,5.0,71,0.00,,,0.00,Wunderground v.1.15,2013-07-20 05:05:00,
2013-07-20 01:08:00,84.3,73.9,29.84,West,281,0.0,2.0,71,0.00,,,0.00,Wunderground v.1.15,2013-07-20 05:08:00,
2013-07-20 01:10:00,84.3,73.9,29.84,WNW,290,2.0,2.0,71,0.00,,,0.00,Wunderground v.1.15,2013-07-20 05:10:00,
2013-07-20 01:11:00,84.3,73.9,29.84,SW,221,10.0,10.0,71,0.00,,,0.00,Wunderground v.1.15,2013-07-20 05:11:00,
2013-07-20 01:12:00,84.3,73.9,29.84,West,278,3.0,10.0,71,0.00,,,0.00,Wunderground v.1.15,2013-07-20 05:12:00,
2013-07-20 01:15:00,84.3,73.9,29.84,WSW,246,0.0,10.0,71,0.00,,,0.00,Wunderground v.1.15,2013-07-20 05:15:00,
2013-07-20 01:16:00,84.1,73.7,29.84,WSW,246,1.0,10.0,71,0.00,,,0.00,Wunderground v.1.15,2013-07-20 05:16:00,
2013-07-20 01:17:00,84.1,74.1,29.84,WNW,300,1.0,10.0,72,0.00,,,0.00,Wunderground v.1.15,2013-07-20 05:17:00,
2013-07-20 01:18:00,84.1,73.7,29.84,SW,221,2.0,2.0,71,0.00,,,0.00,Wunderground v.1.15,2013-07-20 05:18:00,
2013-07-20 01:23:00,84.1,74.1,29.84,WNW,302,0.0,4.0,72,0.00,,,0.00,Wunderground v.1.15,2013-07-20 05:23:00,
2013-07-20 01:24:00,84.1,74.1,29.84,North,349,1.0,4.0,72,0.00,,,0.00,Wunderground v.1.15,2013-07-20 05:24:00,
2013-07-20 01:25:00,84.0,74.0,29.84,SW,232,3.0,4.0,72,0.00,,,0.00,Wunderground v.1.15,2013-07-20 05:25:00,
2013-07-20 01:26:00,84.0,74.0,29.84,SW,235,0.0,4.0,72,0.00,,,0.00,Wunderground v.1.15,2013-07-20 05:26:00,
2013-07-20 01:29:00,84.0,74.0,29.84,SE,130,2.0,2.0,72,0.00,,,0.00,Wunderground v.1.15,2013-07-20 05:29:00,
2013-07-20 01:30:00,84.0,74.0,29.84,SW,234,0.0,2.0,72,0.00,,,0.00,Wunderground v.1.15,2013-07-20 05:30:00,
2013-07-20 01:32:00,83.8,73.8,29.84,WSW,256,0.0,2.0,72,0.00,,,0.00,Wunderground v.1.15,2013-07-20 05:32:00,
2013-07-20 01:34:00,83.8,73.8,29.84,SW,232,0.0,2.0,72,0.00,,,0.00,Wunderground v.1.15,2013-07-20 05:34:00,
2013-07-20 01:35:00,83.8,73.8,29.84,SSW,207,4.0,4.0,72,0.00,,,0.00,Wunderground v.1.15,2013-07-20 05:35:00,
2013-07-20 01:36:00,83.8,73.8,29.84,West,269,0.0,4.0,72,0.00,,,0.00,Wunderground v.1.15,2013-07-20 05:36:00,
2013-07-20 01:38:00,83.8,73.8,29.84,NW,304,0.0,2.0,72,0.00,,,0.00,Wunderground v.1.15,2013-07-20 05:38:00,
2013-07-20 01:41:00,83.8,73.8,29.84,NNW,329,0.0,2.0,72,0.00,,,0.00,Wunderground v.1.15,2013-07-20 05:41:00,
2013-07-20 01:42:00,83.8,73.8,29.84,WNW,286,3.0,3.0,72,0.00,,,0.00,Wunderground v.1.15,2013-07-20 05:42:00,
2013-07-20 01:44:00,83.8,73.4,29.84,WSW,240,0.0,5.0,71,0.00,,,0.00,Wunderground v.1.15,2013-07-20 05:44:00,
2013-07-20 01:46:00,83.6,73.6,29.84,WSW,256,1.0,5.0,72,0.00,,,0.00,Wunderground v.1.15,2013-07-20 05:46:00,
2013-07-20 01:48:00,83.6,73.6,29.84,WSW,257,0.0,1.0,72,0.00,,,0.00,Wunderground v.1.15,2013-07-20 05:48:00,
2013-07-20 01:51:00,83.6,73.6,29.84,WSW,238,1.0,2.0,72,0.00,,,0.00,Wunderground v.1.15,2013-07-20 05:51:00,
2013-07-20 01:52:00,83.6,73.6,29.84,WSW,238,0.0,2.0,72,0.00,,,0.00,Wunderground v.1.15,2013-07-20 05:52:00,
2013-07-20 01:54:00,83.6,73.6,29.83,WSW,247,1.0,2.0,72,0.00,,,0.00,Wunderground v.1.15,2013-07-20 05:54:00,
2013-07-20 01:57:00,83.4,73.0,29.83,SSE,150,0.0,2.0,71,0.00,,,0.00,Wunderground v.1.15,2013-07-20 05:57:00,
2013-07-20 01:58:00,83.4,73.4,29.83,SSE,150,0.0,1.0,72,0.00,,,0.00,Wunderground v.1.15,2013-07-20 05:58:00,
2013-07-20 01:59:00,83.4,73.4,29.83,WSW,258,2.0,2.0,72,0.00,,,0.00,Wunderground v.1.15,2013-07-20 05:59:00,
2013-07-20 02:02:00,83.4,73.0,29.83,West,269,2.0,4.0,71,0.00,,,0.00,Wunderground v.1.15,2013-07-20 06:02:00,
2013-07-20 02:03:00,83.4,73.0,29.83,West,272,1.0,5.0,71,0.00,,,0.00,Wunderground v.1.15,2013-07-20 06:03:00,
2013-07-20 02:04:00,83.4,73.0,29.83,SSW,209,1.0,5.0,71,0.00,,,0.00,Wunderground v.1.15,2013-07-20 06:04:00,
2013-07-20 02:05:00,83.4,73.0,29.83,SSW,209,0.0,5.0,71,0.00,,,0.00,Wunderground v.1.15,2013-07-20 06:05:00,
2013-07-20 02:07:00,83.4,73.0,29.83,SSW,198,1.0,5.0,71,0.00,,,0.00,Wunderground v.1.15,2013-07-20 06:07:00,
2013-07-20 02:09:00,83.4,73.0,29.83,West,281,0.0,3.0,71,0.00,,,0.00,Wunderground v.1.15,2013-07-20 06:09:00,
2013-07-20 02:10:00,83.4,73.0,29.83,West,267,0.0,3.0,71,0.00,,,0.00,Wunderground v.1.15,2013-07-20 06:10:00,
2013-07-20 02:12:00,83.4,73.0,29.83,SW,217,4.0,7.0,71,0.00,,,0.00,Wunderground v.1.15,2013-07-20 06:12:00,
2013-07-20 02:14:00,83.2,72.8,29.83,WSW,240,1.0,7.0,71,0.00,,,0.00,Wunderground v.1.15,2013-07-20 06:14:00,
2013-07-20 02:15:00,83.2,72.8,29.83,SW,219,1.0,7.0,71,0.00,,,0.00,Wunderground v.1.15,2013-07-20 06:15:00,
2013-07-20 02:16:00,83.2,72.8,29.83,SW,219,1.0,7.0,71,0.00,,,0.00,Wunderground v.1.15,2013-07-20 06:16:00,
2013-07-20 02:17:00,83.2,72.8,29.83,SW,236,2.0,7.0,71,0.00,,,0.00,Wunderground v.1.15,2013-07-20 06:17:00,
2013-07-20 02:20:00,83.2,72.8,29.83,NW,306,0.0,4.0,71,0.00,,,0.00,Wunderground v.1.15,2013-07-20 06:20:00,
2013-07-20 02:21:00,83.2,72.8,29.83,WNW,303,0.0,4.0,71,0.00,,,0.00,Wunderground v.1.15,2013-07-20 06:21:00,
2013-07-20 02:23:00,83.2,72.8,29.83,South,171,3.0,5.0,71,0.00,,,0.00,Wunderground v.1.15,2013-07-20 06:23:00,
2013-07-20 02:25:00,83.2,72.8,29.83,SE,137,0.0,5.0,71,0.00,,,0.00,Wunderground v.1.15,2013-07-20 06:25:00,
2013-07-20 02:26:00,83.2,72.8,29.83,ENE,59,0.0,5.0,71,0.00,,,0.00,Wunderground v.1.15,2013-07-20 06:26:00,
2013-07-20 02:27:00,83.2,72.8,29.83,ENE,59,0.0,5.0,71,0.00,,,0.00,Wunderground v.1.15,2013-07-20 06:27:00,
2013-07-20 02:28:00,83.0,72.6,29.83,SW,221,0.0,1.0,71,0.00,,,0.00,Wunderground v.1.15,2013-07-20 06:28:00,
2013-07-20 02:30:00,83.0,72.6,29.83,West,281,0.0,5.0,71,0.00,,,0.00,Wunderground v.1.15,2013-07-20 06:30:00,
2013-07-20 02:32:00,83.0,72.2,29.83,WSW,257,4.0,5.0,70,0.00,,,0.00,Wunderground v.1.15,2013-07-20 06:32:00,
2013-07-20 02:33:00,83.0,72.2,29.83,WSW,252,0.0,5.0,70,0.00,,,0.00,Wunderground v.1.15,2013-07-20 06:33:00,
2013-07-20 02:36:00,83.0,72.2,29.83,SSW,212,0.0,5.0,70,0.00,,,0.00,Wunderground v.1.15,2013-07-20 06:36:00,
2013-07-20 02:37:00,83.0,72.2,29.83,NW,313,0.0,5.0,70,0.00,,,0.00,Wunderground v.1.15,2013-07-20 06:37:00,
2013-07-20 02:39:00,83.0,72.2,29.83,NW,313,0.0,1.0,70,0.00,,,0.00,Wunderground v.1.15,2013-07-20 06:39:00,
2013-07-20 02:42:00,82.8,72.0,29.82,WSW,252,3.0,4.0,70,0.00,,,0.00,Wunderground v.1.15,2013-07-20 06:42:00,
2013-07-20 02:43:00,82.8,72.0,29.82,WSW,252,0.0,4.0,70,0.00,,,0.00,Wunderground v.1.15,2013-07-20 06:43:00,
2013-07-20 02:44:00,82.8,72.0,29.82,WSW,250,2.0,4.0,70,0.00,,,0.00,Wunderground v.1.15,2013-07-20 06:44:00,
2013-07-20 02:47:00,82.6,71.8,29.82,SW,223,0.0,4.0,70,0.00,,,0.00,Wunderground v.1.15,2013-07-20 06:47:00,
2013-07-20 02:48:00,82.6,71.8,29.82,WNW,287,4.0,7.0,70,0.00,,,0.00,Wunderground v.1.15,2013-07-20 06:48:00,
2013-07-20 02:49:00,82.6,71.8,29.82,WNW,287,0.0,7.0,70,0.00,,,0.00,Wunderground v.1.15,2013-07-20 06:49:00,
2013-07-20 02:50:00,82.6,71.8,29.82,WSW,244,4.0,7.0,70,0.00,,,0.00,Wunderground v.1.15,2013-07-20 06:50:00,
2013-07-20 02:52:00,82.6,71.8,29.82,WSW,246,0.0,7.0,70,0.00,,,0.00,Wunderground v.1.15,2013-07-20 06:52:00,
2013-07-20 02:53:00,82.6,71.8,29.82,NNW,338,0.0,7.0,70,0.00,,,0.00,Wunderground v.1.15,2013-07-20 06:53:00,
2013-07-20 02:54:00,82.6,71.8,29.82,WSW,243,4.0,7.0,70,0.00,,,0.00,Wunderground v.1.15,2013-07-20 06:54:00,
2013-07-20 02:56:00,82.4,71.6,29.82,SSW,207,0.0,7.0,70,0.00,,,0.00,Wunderground v.1.15,2013-07-20 06:56:00,
2013-07-20 02:58:00,82.4,71.6,29.82,SSW,208,1.0,1.0,70,0.00,,,0.00,Wunderground v.1.15,2013-07-20 06:58:00,
2013-07-20 02:59:00,82.4,71.6,29.82,SSW,208,0.0,1.0,70,0.00,,,0.00,Wunderground v.1.15,2013-07-20 06:59:00,
2013-07-20 03:02:00,82.4,71.6,29.82,SSW,205,0.0,6.0,70,0.00,,,0.00,Wunderground v.1.15,2013-07-20 07:02:00,
2013-07-20 03:03:00,82.4,71.2,29.82,SSW,205,0.0,6.0,69,0.00,,,0.00,Wunderground v.1.15,2013-07-20 07:03:00,
2013-07-20 03:04:00,82.4,71.6,29.81,SSW,205,0.0,6.0,70,0.00,,,0.00,Wunderground v.1.15,2013-07-20 07:04:00,
2013-07-20 03:07:00,82.4,71.2,29.81,South,190,0.0,6.0,69,0.00,,,0.00,Wunderground v.1.15,2013-07-20 07:07:00,
2013-07-20 03:08:00,82.4,71.2,29.81,SW,217,0.0,3.0,69,0.00,,,0.00,Wunderground v.1.15,2013-07-20 07:08:00,
2013-07-20 03:09:00,82.4,71.2,29.81,SW,217,0.0,3.0,69,0.00,,,0.00,Wunderground v.1.15,2013-07-20 07:09:00,
2013-07-20 03:12:00,82.4,71.6,29.81,WSW,238,3.0,4.0,70,0.00,,,0.00,Wunderground v.1.15,2013-07-20 07:12:00,
2013-07-20 03:14:00,82.4,71.6,29.81,NNE,23,2.0,4.0,70,0.00,,,0.00,Wunderground v.1.15,2013-07-20 07:14:00,
2013-07-20 03:15:00,82.2,71.4,29.81,SSW,207,1.0,4.0,70,0.00,,,0.00,Wunderground v.1.15,2013-07-20 07:15:00,
2013-07-20 03:17:00,82.2,71.4,29.81,SW,223,0.0,4.0,70,0.00,,,0.00,Wunderground v.1.15,2013-07-20 07:17:00,
2013-07-20 03:19:00,82.2,71.4,29.81,SW,223,0.0,1.0,70,0.00,,,0.00,Wunderground v.1.15,2013-07-20 07:19:00,
2013-07-20 03:20:00,82.2,71.4,29.81,SW,223,0.0,1.0,70,0.00,,,0.00,Wunderground v.1.15,2013-07-20 07:20:00,
2013-07-20 03:22:00,82.0,71.2,29.81,NW,313,2.0,3.0,70,0.00,,,0.00,Wunderground v.1.15,2013-07-20 07:22:00,
2013-07-20 03:24:00,82.0,71.2,29.81,SW,235,0.0,4.0,70,0.00,,,0.00,Wunderground v.1.15,2013-07-20 07:24:00,
2013-07-20 03:25:00,82.0,71.2,29.81,SW,235,1.0,4.0,70,0.00,,,0.00,Wunderground v.1.15,2013-07-20 07:25:00,
2013-07-20 03:27:00,82.0,71.2,29.81,SSW,212,0.0,1.0,70,0.00,,,0.00,Wunderground v.1.15,2013-07-20 07:27:00,
2013-07-20 03:30:00,81.8,71.1,29.81,SW,234,0.0,5.0,70,0.00,,,0.00,Wunderground v.1.15,2013-07-20 07:30:00,
2013-07-20 03:33:00,81.8,71.1,29.81,SW,229,0.0,5.0,70,0.00,,,0.00,Wunderground v.1.15,2013-07-20 07:33:00,
2013-07-20 03:35:00,81.8,71.1,29.81,SW,229,0.0,5.0,70,0.00,,,0.00,Wunderground v.1.15,2013-07-20 07:35:00,
2013-07-20 03:36:00,81.8,71.1,29.80,SW,229,0.0,5.0,70,0.00,,,0.00,Wunderground v.1.15,2013-07-20 07:36:00,
2013-07-20 03:38:00,81.8,71.1,29.81,SW,229,0.0,0.0,70,0.00,,,0.00,Wunderground v.1.15,2013-07-20 07:38:00,
2013-07-20 03:41:00,81.8,71.1,29.81,SSW,213,0.0,3.0,70,0.00,,,0.00,Wunderground v.1.15,2013-07-20 07:41:00,
2013-07-20 03:43:00,81.8,70.6,29.80,SW,216,0.0,3.0,69,0.00,,,0.00,Wunderground v.1.15,2013-07-20 07:43:00,
2013-07-20 03:46:00,81.6,70.4,29.80,SW,225,1.0,3.0,69,0.00,,,0.00,Wunderground v.1.15,2013-07-20 07:46:00,
2013-07-20 03:48:00,81.6,70.4,29.81,WSW,243,0.0,5.0,69,0.00,,,0.00,Wunderground v.1.15,2013-07-20 07:48:00,
2013-07-20 03:51:00,81.6,70.4,29.81,North,5,0.0,5.0,69,0.00,,,0.00,Wunderground v.1.15,2013-07-20 07:51:00,
2013-07-20 03:52:00,81.6,70.4,29.81,North,5,0.0,5.0,69,0.00,,,0.00,Wunderground v.1.15,2013-07-20 07:52:00,
2013-07-20 03:54:00,81.6,70.4,29.81,North,350,1.0,5.0,69,0.00,,,0.00,Wunderground v.1.15,2013-07-20 07:54:00,
2013-07-20 03:57:00,81.4,70.2,29.81,South,186,0.0,5.0,69,0.00,,,0.00,Wunderground v.1.15,2013-07-20 07:57:00,
2013-07-20 04:00:00,81.4,70.2,29.81,West,265,4.0,4.0,69,0.00,,,0.00,Wunderground v.1.15,2013-07-20 08:00:00,
2013-07-20 04:02:00,81.4,70.2,29.81,WSW,242,0.0,4.0,69,0.00,,,0.00,Wunderground v.1.15,2013-07-20 08:02:00,
2013-07-20 04:05:00,81.4,69.8,29.81,WSW,238,0.0,4.0,68,0.00,,,0.00,Wunderground v.1.15,2013-07-20 08:05:00,
2013-07-20 04:07:00,81.4,69.8,29.80,NW,313,0.0,4.0,68,0.00,,,0.00,Wunderground v.1.15,2013-07-20 08:07:00,
2013-07-20 04:08:00,81.4,69.8,29.80,NW,313,0.0,1.0,68,0.00,,,0.00,Wunderground v.1.15,2013-07-20 08:08:00,
2013-07-20 04:10:00,81.2,69.6,29.80,WNW,293,0.0,3.0,68,0.00,,,0.00,Wunderground v.1.15,2013-07-20 08:10:00,
2013-07-20 04:13:00,81.2,69.6,29.80,NNW,339,0.0,3.0,68,0.00,,,0.00,Wunderground v.1.15,2013-07-20 08:13:00,
2013-07-20 04:16:00,81.2,69.6,29.80,WSW,238,0.0,5.0,68,0.00,,,0.00,Wunderground v.1.15,2013-07-20 08:16:00,
2013-07-20 04:18:00,81.2,69.6,29.80,WSW,254,0.0,1.0,68,0.00,,,0.00,Wunderground v.1.15,2013-07-20 08:18:00,
2013-07-20 04:21:00,81.1,69.5,29.80,SW,231,2.0,4.0,68,0.00,,,0.00,Wunderground v.1.15,2013-07-20 08:21:00,
2013-07-20 04:23:00,81.1,69.5,29.80,SW,232,1.0,4.0,68,0.00,,,0.00,Wunderground v.1.15,2013-07-20 08:23:00,
2013-07-20 04:24:00,81.1,69.5,29.80,WSW,237,0.0,4.0,68,0.00,,,0.00,Wunderground v.1.15,2013-07-20 08:24:00,
2013-07-20 04:26:00,81.1,69.5,29.80,WSW,245,0.0,5.0,68,0.00,,,0.00,Wunderground v.1.15,2013-07-20 08:26:00,
2013-07-20 04:28:00,81.1,70.0,29.80,WSW,244,0.0,1.0,69,0.00,,,0.00,Wunderground v.1.15,2013-07-20 08:28:00,
2013-07-20 04:29:00,80.9,69.8,29.80,WSW,244,0.0,1.0,69,0.00,,,0.00,Wunderground v.1.15,2013-07-20 08:29:00,
2013-07-20 04:31:00,80.9,69.8,29.80,WSW,245,0.0,1.0,69,0.00,,,0.00,Wunderground v.1.15,2013-07-20 08:31:00,
2013-07-20 04:33:00,80.9,69.8,29.80,WSW,245,0.0,1.0,69,0.00,,,0.00,Wunderground v.1.15,2013-07-20 08:33:00,
2013-07-20 04:34:00,80.9,69.8,29.80,WSW,245,0.0,1.0,69,0.00,,,0.00,Wunderground v.1.15,2013-07-20 08:34:00,
2013-07-20 04:35:00,80.9,69.8,29.80,WSW,244,0.0,1.0,69,0.00,,,0.00,Wunderground v.1.15,2013-07-20 08:35:00,
2013-07-20 04:37:00,80.9,69.8,29.80,WSW,244,1.0,3.0,69,0.00,,,0.00,Wunderground v.1.15,2013-07-20 08:37:00,
2013-07-20 04:39:00,80.9,69.8,29.80,WSW,244,0.0,0.0,69,0.00,,,0.00,Wunderground v.1.15,2013-07-20 08:39:00,
2013-07-20 04:40:00,80.9,70.2,29.80,WSW,237,0.0,5.0,70,0.00,,,0.00,Wunderground v.1.15,2013-07-20 08:40:00,
2013-07-20 04:42:00,80.7,70.0,29.80,WSW,237,0.0,5.0,70,0.00,,,0.00,Wunderground v.1.15,2013-07-20 08:42:00,
2013-07-20 04:44:00,80.7,70.0,29.80,WSW,237,0.0,5.0,70,0.00,,,0.00,Wunderground v.1.15,2013-07-20 08:44:00,
2013-07-20 04:45:00,80.7,70.0,29.80,WSW,237,0.0,5.0,70,0.00,,,0.00,Wunderground v.1.15,2013-07-20 08:45:00,
2013-07-20 04:48:00,80.5,69.8,29.80,SW,229,2.0,4.0,70,0.00,,,0.00,Wunderground v.1.15,2013-07-20 08:48:00,
2013-07-20 04:49:00,80.5,70.2,29.80,SW,229,0.0,4.0,71,0.00,,,0.00,Wunderground v.1.15,2013-07-20 08:49:00,
2013-07-20 04:51:00,80.5,70.2,29.80,SW,229,0.0,4.0,71,0.00,,,0.00,Wunderground v.1.15,2013-07-20 08:51:00,
2013-07-20 04:53:00,80.3,70.0,29.80,SW,236,0.0,4.0,71,0.00,,,0.00,Wunderground v.1.15,2013-07-20 08:53:00,
2013-07-20 04:54:00,80.3,70.0,29.80,SW,236,0.0,4.0,71,0.00,,,0.00,Wunderground v.1.15,2013-07-20 08:54:00,
2013-07-20 04:55:00,80.3,70.0,29.80,SW,236,0.0,4.0,71,0.00,,,0.00,Wunderground v.1.15,2013-07-20 08:55:00,
2013-07-20 04:56:00,80.3,70.0,29.80,SW,236,0.0,4.0,71,0.00,,,0.00,Wunderground v.1.15,2013-07-20 08:56:00,
2013-07-20 04:59:00,80.3,70.0,29.80,NW,310,0.0,1.0,71,0.00,,,0.00,Wunderground v.1.15,2013-07-20 08:59:00,
2013-07-20 05:00:00,80.3,70.0,29.80,NW,310,0.0,1.0,71,0.00,,,0.00,Wunderground v.1.15,2013-07-20 09:00:00,
2013-07-20 05:01:00,80.3,70.0,29.80,SSW,199,0.0,2.0,71,0.00,,,0.00,Wunderground v.1.15,2013-07-20 09:01:00,
2013-07-20 05:04:00,80.1,70.3,29.80,WSW,239,0.0,4.0,72,0.00,,,0.00,Wunderground v.1.15,2013-07-20 09:04:00,
2013-07-20 05:05:00,80.1,70.3,29.80,WSW,239,0.0,4.0,72,0.00,,,0.00,Wunderground v.1.15,2013-07-20 09:05:00,
2013-07-20 05:07:00,80.1,70.3,29.80,WSW,239,0.0,4.0,72,0.00,,,0.00,Wunderground v.1.15,2013-07-20 09:07:00,
2013-07-20 05:10:00,80.1,70.3,29.81,NW,306,1.0,4.0,72,0.00,,,0.00,Wunderground v.1.15,2013-07-20 09:10:00,
2013-07-20 05:12:00,80.3,70.4,29.81,NW,306,1.0,4.0,72,0.00,,,0.00,Wunderground v.1.15,2013-07-20 09:12:00,
2013-07-20 05:15:00,80.3,70.4,29.81,SW,230,3.0,5.0,72,0.00,,,0.00,Wunderground v.1.15,2013-07-20 09:15:00,
2013-07-20 05:16:00,80.3,70.4,29.81,SW,230,1.0,5.0,72,0.00,,,0.00,Wunderground v.1.15,2013-07-20 09:16:00,
2013-07-20 05:17:00,80.3,70.4,29.81,West,263,1.0,5.0,72,0.00,,,0.00,Wunderground v.1.15,2013-07-20 09:17:00,
2013-07-20 05:20:00,80.3,70.4,29.80,West,277,0.0,2.0,72,0.00,,,0.00,Wunderground v.1.15,2013-07-20 09:20:00,
2013-07-20 05:21:00,80.3,70.4,29.81,West,277,0.0,2.0,72,0.00,,,0.00,Wunderground v.1.15,2013-07-20 09:21:00,
2013-07-20 05:22:00,80.3,70.4,29.81,West,277,0.0,2.0,72,0.00,,,0.00,Wunderground v.1.15,2013-07-20 09:22:00,
2013-07-20 05:23:00,80.3,70.4,29.81,West,277,0.0,2.0,72,0.00,,,0.00,Wunderground v.1.15,2013-07-20 09:23:00,
2013-07-20 05:25:00,80.3,70.4,29.81,WSW,258,0.0,2.0,72,0.00,,,0.00,Wunderground v.1.15,2013-07-20 09:25:00,
2013-07-20 05:27:00,80.3,70.9,29.81,WSW,258,1.0,2.0,73,0.00,,,0.00,Wunderground v.1.15,2013-07-20 09:27:00,
2013-07-20 05:29:00,80.3,70.9,29.81,East,91,1.0,3.0,73,0.00,,,0.00,Wunderground v.1.15,2013-07-20 09:29:00,
2013-07-20 05:30:00,80.1,70.7,29.81,ENE,59,0.0,3.0,73,0.00,,,0.00,Wunderground v.1.15,2013-07-20 09:30:00,
2013-07-20 05:32:00,80.1,70.7,29.81,SW,235,3.0,6.0,73,0.00,,,0.00,Wunderground v.1.15,2013-07-20 09:32:00,
2013-07-20 05:34:00,80.1,70.7,29.81,SW,227,0.0,6.0,73,0.00,,,0.00,Wunderground v.1.15,2013-07-20 09:34:00,
2013-07-20 05:36:00,80.1,71.1,29.81,West,279,0.0,6.0,74,0.00,,,0.00,Wunderground v.1.15,2013-07-20 09:36:00,
2013-07-20 05:37:00,80.1,71.1,29.81,West,279,0.0,6.0,74,0.00,,,0.00,Wunderground v.1.15,2013-07-20 09:37:00,
2013-07-20 05:38:00,80.1,71.1,29.81,West,279,0.0,1.0,74,0.00,,,0.00,Wunderground v.1.15,2013-07-20 09:38:00,
2013-07-20 05:39:00,80.1,71.1,29.81,West,279,0.0,1.0,74,0.00,,,0.00,Wunderground v.1.15,2013-07-20 09:39:00,
2013-07-20 05:41:00,80.1,71.1,29.82,WNW,297,0.0,3.0,74,0.00,,,0.00,Wunderground v.1.15,2013-07-20 09:41:00,
2013-07-20 05:43:00,80.1,71.1,29.82,SW,225,3.0,3.0,74,0.00,,,0.00,Wunderground v.1.15,2013-07-20 09:43:00,
2013-07-20 05:45:00,80.1,71.5,29.82,WSW,258,0.0,7.0,75,0.00,,,0.00,Wunderground v.1.15,2013-07-20 09:45:00,
2013-07-20 05:46:00,80.1,71.5,29.82,WSW,253,0.0,7.0,75,0.00,,,0.00,Wunderground v.1.15,2013-07-20 09:46:00,
2013-07-20 05:48:00,80.1,71.5,29.82,WSW,253,0.0,1.0,75,0.00,,,0.00,Wunderground v.1.15,2013-07-20 09:48:00,
2013-07-20 05:49:00,80.1,71.5,29.82,WSW,253,0.0,1.0,75,0.00,,,0.00,Wunderground v.1.15,2013-07-20 09:49:00,
2013-07-20 05:50:00,80.1,71.5,29.82,NW,321,1.0,7.0,75,0.00,,,0.00,Wunderground v.1.15,2013-07-20 09:50:00,
2013-07-20 05:53:00,80.1,71.8,29.83,WSW,242,3.0,7.0,76,0.00,,,0.00,Wunderground v.1.15,2013-07-20 09:53:00,
2013-07-20 05:54:00,80.1,71.8,29.83,WSW,242,1.0,7.0,76,0.00,,,0.00,Wunderground v.1.15,2013-07-20 09:54:00,
2013-07-20 05:55:00,79.9,71.7,29.83,SSE,167,0.0,7.0,76,0.00,,,0.00,Wunderground v.1.15,2013-07-20 09:55:00,
2013-07-20 05:58:00,79.9,71.7,29.83,WSW,251,5.0,5.0,76,0.00,,,0.00,Wunderground v.1.15,2013-07-20 09:58:00,
2013-07-20 05:59:00,79.9,71.7,29.83,SW,236,0.0,9.0,76,0.00,,,0.00,Wunderground v.1.15,2013-07-20 09:59:00,
2013-07-20 06:01:00,79.9,71.7,29.83,WSW,249,2.0,10.0,76,0.00,,,0.00,Wunderground v.1.15,2013-07-20 10:01:00,
2013-07-20 06:03:00,79.9,71.7,29.83,SW,223,3.0,10.0,76,0.00,,,0.00,Wunderground v.1.15,2013-07-20 10:03:00,
2013-07-20 06:04:00,79.9,72.0,29.83,WSW,242,2.0,10.0,77,0.00,,,0.00,Wunderground v.1.15,2013-07-20 10:04:00,
2013-07-20 06:05:00,79.9,72.0,29.83,WNW,296,3.0,10.0,77,0.00,,,0.00,Wunderground v.1.15,2013-07-20 10:05:00,
2013-07-20 06:06:00,79.9,72.0,29.83,WSW,246,2.0,10.0,77,0.00,,,0.00,Wunderground v.1.15,2013-07-20 10:06:00,
2013-07-20 06:09:00,79.9,72.0,29.83,WSW,248,0.0,2.0,77,0.00,,,0.00,Wunderground v.1.15,2013-07-20 10:09:00,
2013-07-20 06:10:00,79.9,72.0,29.83,WSW,246,0.0,2.0,77,0.00,,,0.00,Wunderground v.1.15,2013-07-20 10:10:00,
2013-07-20 06:12:00,79.9,72.0,29.83,WNW,286,0.0,6.0,77,0.00,,,0.00,Wunderground v.1.15,2013-07-20 10:12:00,
2013-07-20 06:14:00,79.9,72.0,29.83,WSW,257,1.0,6.0,77,0.00,,,0.00,Wunderground v.1.15,2013-07-20 10:14:00,
2013-07-20 06:16:00,79.9,72.0,29.83,WSW,246,2.0,6.0,77,0.00,,,0.00,Wunderground v.1.15,2013-07-20 10:16:00,
2013-07-20 06:17:00,79.9,72.0,29.83,West,277,2.0,6.0,77,0.00,,,0.00,Wunderground v.1.15,2013-07-20 10:17:00,
2013-07-20 06:19:00,79.9,72.0,29.83,SW,232,0.0,1.0,77,0.00,,,0.00,Wunderground v.1.15,2013-07-20 10:19:00,
2013-07-20 06:20:00,79.9,72.0,29.83,WSW,238,1.0,3.0,77,0.00,,,0.00,Wunderground v.1.15,2013-07-20 10:20:00,
2013-07-20 06:21:00,79.9,72.0,29.83,WSW,238,2.0,3.0,77,0.00,,,0.00,Wunderground v.1.15,2013-07-20 10:21:00,
2013-07-20 06:22:00,79.8,71.9,29.83,WSW,242,0.0,3.0,77,0.00,,,0.00,Wunderground v.1.15,2013-07-20 10:22:00,
2013-07-20 06:24:00,79.8,71.6,29.83,SW,221,4.0,7.0,76,0.00,,,0.00,Wunderground v.1.15,2013-07-20 10:24:00,
2013-07-20 06:25:00,79.8,71.6,29.83,WSW,252,2.0,7.0,76,0.00,,,0.00,Wunderground v.1.15,2013-07-20 10:25:00,
2013-07-20 06:27:00,79.8,71.6,29.83,West,262,1.0,7.0,76,0.00,,,0.00,Wunderground v.1.15,2013-07-20 10:27:00,
2013-07-20 06:28:00,79.8,71.6,29.83,West,262,0.0,1.0,76,0.00,,,0.00,Wunderground v.1.15,2013-07-20 10:28:00,
2013-07-20 06:30:00,79.8,71.6,29.83,WSW,241,0.0,3.0,76,0.00,,,0.00,Wunderground v.1.15,2013-07-20 10:30:00,
2013-07-20 06:32:00,79.8,71.6,29.83,SW,236,0.0,3.0,76,0.00,,,0.00,Wunderground v.1.15,2013-07-20 10:32:00,
2013-07-20 06:34:00,79.8,71.6,29.83,SW,236,0.0,3.0,76,0.00,,,0.00,Wunderground v.1.15,2013-07-20 10:34:00,
2013-07-20 06:35:00,79.8,71.6,29.82,SW,226,0.0,4.0,76,0.00,,,0.00,Wunderground v.1.15,2013-07-20 10:35:00,
2013-07-20 06:36:00,79.8,71.6,29.83,SW,226,0.0,4.0,76,0.00,,,0.00,Wunderground v.1.15,2013-07-20 10:36:00,
2013-07-20 06:37:00,79.8,71.6,29.82,WNW,283,0.0,4.0,76,0.00,,,0.00,Wunderground v.1.15,2013-07-20 10:37:00,
2013-07-20 06:39:00,79.9,71.7,29.83,WSW,244,2.0,4.0,76,0.00,,,0.00,Wunderground v.1.15,2013-07-20 10:39:00,
2013-07-20 06:40:00,79.9,71.7,29.83,WSW,239,2.0,4.0,76,0.00,,,0.00,Wunderground v.1.15,2013-07-20 10:40:00,
2013-07-20 06:42:00,79.9,71.7,29.83,SSE,153,1.0,4.0,76,0.00,,,0.00,Wunderground v.1.15,2013-07-20 10:42:00,
2013-07-20 06:43:00,79.9,71.7,29.83,WNW,300,3.0,4.0,76,0.00,,,0.00,Wunderground v.1.15,2013-07-20 10:43:00,
2013-07-20 06:44:00,79.9,71.7,29.83,WSW,257,0.0,4.0,76,0.00,,,0.00,Wunderground v.1.15,2013-07-20 10:44:00,
2013-07-20 06:45:00,79.9,71.7,29.83,WSW,256,2.0,4.0,76,0.00,,,0.00,Wunderground v.1.15,2013-07-20 10:45:00,
2013-07-20 06:47:00,79.9,71.7,29.83,WSW,240,1.0,4.0,76,0.00,,,0.00,Wunderground v.1.15,2013-07-20 10:47:00,
2013-07-20 06:48:00,79.9,71.7,29.83,WSW,240,0.0,1.0,76,0.00,,,0.00,Wunderground v.1.15,2013-07-20 10:48:00,
2013-07-20 06:50:00,79.8,71.6,29.82,WSW,249,0.0,9.0,76,0.00,,,0.00,Wunderground v.1.15,2013-07-20 10:50:00,
2013-07-20 06:51:00,79.8,71.6,29.82,West,265,2.0,9.0,76,0.00,,,0.00,Wunderground v.1.15,2013-07-20 10:51:00,
2013-07-20 06:53:00,79.8,71.6,29.82,West,272,0.0,9.0,76,0.00,,,0.00,Wunderground v.1.15,2013-07-20 10:53:00,
2013-07-20 06:54:00,79.8,71.6,29.82,West,272,0.0,9.0,76,0.00,,,0.00,Wunderground v.1.15,2013-07-20 10:54:00,
2013-07-20 06:55:00,79.8,71.6,29.83,WSW,245,0.0,9.0,76,0.00,,,0.00,Wunderground v.1.15,2013-07-20 10:55:00,
2013-07-20 06:56:00,79.8,71.6,29.83,WSW,238,2.0,9.0,76,0.00,,,0.00,Wunderground v.1.15,2013-07-20 10:56:00,
2013-07-20 06:59:00,79.9,71.3,29.83,West,260,0.0,5.0,75,0.00,,,0.00,Wunderground v.1.15,2013-07-20 10:59:00,
2013-07-20 07:00:00,79.9,71.3,29.83,West,260,0.0,5.0,75,0.00,,,0.00,Wunderground v.1.15,2013-07-20 11:00:00,
2013-07-20 07:02:00,80.1,71.5,29.83,West,260,0.0,5.0,75,0.00,,,0.00,Wunderground v.1.15,2013-07-20 11:02:00,
2013-07-20 07:04:00,80.1,71.5,29.83,West,260,0.0,5.0,75,0.00,,,0.00,Wunderground v.1.15,2013-07-20 11:04:00,
2013-07-20 07:05:00,80.3,71.6,29.83,WSW,243,1.0,5.0,75,0.00,,,0.00,Wunderground v.1.15,2013-07-20 11:05:00,
2013-07-20 07:07:00,80.3,71.6,29.84,West,261,11.0,11.0,75,0.00,,,0.00,Wunderground v.1.15,2013-07-20 11:07:00,
2013-07-20 07:09:00,80.3,71.6,29.83,WSW,248,0.0,1.0,75,0.00,,,0.00,Wunderground v.1.15,2013-07-20 11:09:00,
2013-07-20 07:10:00,80.3,71.6,29.83,WSW,246,1.0,2.0,75,0.00,,,0.00,Wunderground v.1.15,2013-07-20 11:10:00,
2013-07-20 07:11:00,80.3,71.6,29.83,East,91,2.0,2.0,75,0.00,,,0.00,Wunderground v.1.15,2013-07-20 11:11:00,
2013-07-20 07:12:00,80.3,71.6,29.83,WSW,239,4.0,4.0,75,0.00,,,0.00,Wunderground v.1.15,2013-07-20 11:12:00,
2013-07-20 07:14:00,80.5,71.4,29.84,WSW,239,0.0,4.0,74,0.00,,,0.00,Wunderground v.1.15,2013-07-20 11:14:00,
2013-07-20 07:15:00,80.5,71.4,29.83,NW,319,3.0,4.0,74,0.00,,,0.00,Wunderground v.1.15,2013-07-20 11:15:00,
2013-07-20 07:17:00,80.7,71.6,29.84,WSW,245,2.0,4.0,74,0.00,,,0.00,Wunderground v.1.15,2013-07-20 11:17:00,
2013-07-20 07:19:00,80.7,71.6,29.84,NNE,25,1.0,4.0,74,0.00,,,0.00,Wunderground v.1.15,2013-07-20 11:19:00,
2013-07-20 07:20:00,80.7,71.6,29.84,WSW,253,2.0,4.0,74,0.00,,,0.00,Wunderground v.1.15,2013-07-20 11:20:00,
2013-07-20 07:22:00,80.9,71.4,29.84,WSW,238,1.0,7.0,73,0.00,,,0.00,Wunderground v.1.15,2013-07-20 11:22:00,
2013-07-20 07:25:00,81.1,71.6,29.84,WSW,257,4.0,7.0,73,0.00,,,0.00,Wunderground v.1.15,2013-07-20 11:25:00,
2013-07-20 07:27:00,81.1,71.2,29.84,WSW,254,2.0,7.0,72,0.00,,,0.00,Wunderground v.1.15,2013-07-20 11:27:00,
2013-07-20 07:29:00,81.1,71.2,29.84,SW,217,2.0,4.0,72,0.00,,,0.00,Wunderground v.1.15,2013-07-20 11:29:00,
2013-07-20 07:30:00,81.1,71.2,29.84,SW,217,0.0,4.0,72,0.00,,,0.00,Wunderground v.1.15,2013-07-20 11:30:00,
2013-07-20 07:31:00,81.1,71.2,29.84,WNW,284,1.0,4.0,72,0.00,,,0.00,Wunderground v.1.15,2013-07-20 11:31:00,
2013-07-20 07:32:00,81.1,71.2,29.84,SSW,199,0.0,6.0,72,0.00,,,0.00,Wunderground v.1.15,2013-07-20 11:32:00,
2013-07-20 07:35:00,81.1,71.6,29.84,WSW,249,1.0,6.0,73,0.00,,,0.00,Wunderground v.1.15,2013-07-20 11:35:00,
2013-07-20 07:36:00,81.1,71.2,29.84,SW,229,0.0,6.0,72,0.00,,,0.00,Wunderground v.1.15,2013-07-20 11:36:00,
2013-07-20 07:38:00,81.1,71.2,29.84,SW,223,0.0,4.0,72,0.00,,,0.00,Wunderground v.1.15,2013-07-20 11:38:00,
2013-07-20 07:40:00,81.1,71.2,29.84,SW,221,0.0,4.0,72,0.00,,,0.00,Wunderground v.1.15,2013-07-20 11:40:00,
2013-07-20 07:42:00,81.1,71.2,29.84,SE,135,4.0,11.0,72,0.00,,,0.00,Wunderground v.1.15,2013-07-20 11:42:00,
2013-07-20 07:43:00,81.1,70.8,29.84,West,267,1.0,11.0,71,0.00,,,0.00,Wunderground v.1.15,2013-07-20 11:43:00,
2013-07-20 07:45:00,81.1,71.2,29.84,WSW,238,4.0,11.0,72,0.00,,,0.00,Wunderground v.1.15,2013-07-20 11:45:00,
2013-07-20 07:46:00,81.1,71.2,29.84,SW,236,2.0,11.0,72,0.00,,,0.00,Wunderground v.1.15,2013-07-20 11:46:00,
2013-07-20 07:47:00,81.1,70.8,29.84,SW,236,1.0,11.0,71,0.00,,,0.00,Wunderground v.1.15,2013-07-20 11:47:00,
2013-07-20 07:48:00,81.1,71.2,29.84,SW,226,2.0,2.0,72,0.00,,,0.00,Wunderground v.1.15,2013-07-20 11:48:00,
2013-07-20 07:51:00,81.1,70.8,29.84,WSW,250,2.0,4.0,71,0.00,,,0.00,Wunderground v.1.15,2013-07-20 11:51:00,
2013-07-20 07:52:00,81.1,70.8,29.84,WSW,248,0.0,4.0,71,0.00,,,0.00,Wunderground v.1.15,2013-07-20 11:52:00,
2013-07-20 07:53:00,81.1,70.8,29.84,WNW,289,0.0,4.0,71,0.00,,,0.00,Wunderground v.1.15,2013-07-20 11:53:00,
2013-07-20 07:56:00,81.1,70.8,29.84,NW,319,0.0,5.0,71,0.00,,,0.00,Wunderground v.1.15,2013-07-20 11:56:00,
2013-07-20 07:57:00,81.1,70.8,29.84,NW,319,0.0,5.0,71,0.00,,,0.00,Wunderground v.1.15,2013-07-20 11:57:00,
2013-07-20 07:58:00,81.1,70.8,29.84,NW,319,0.0,1.0,71,0.00,,,0.00,Wunderground v.1.15,2013-07-20 11:58:00,
2013-07-20 07:59:00,81.2,70.9,29.84,NW,313,4.0,4.0,71,0.00,,,0.00,Wunderground v.1.15,2013-07-20 11:59:00,
2013-07-20 08:01:00,81.2,70.5,29.84,NW,321,2.0,6.0,70,0.00,,,0.00,Wunderground v.1.15,2013-07-20 12:01:00,
2013-07-20 08:02:00,81.2,70.5,29.84,NW,312,1.0,7.0,70,0.00,,,0.00,Wunderground v.1.15,2013-07-20 12:02:00,
2013-07-20 08:03:00,81.2,70.5,29.84,NW,320,2.0,8.0,70,0.00,,,0.00,Wunderground v.1.15,2013-07-20 12:03:00,
2013-07-20 08:05:00,81.4,70.7,29.84,NW,320,1.0,8.0,70,0.00,,,0.00,Wunderground v.1.15,2013-07-20 12:05:00,
2013-07-20 08:07:00,81.4,70.2,29.84,NNW,327,0.0,8.0,69,0.00,,,0.00,Wunderground v.1.15,2013-07-20 12:07:00,
2013-07-20 08:08:00,81.6,70.4,29.84,SW,214,0.0,6.0,69,0.00,,,0.00,Wunderground v.1.15,2013-07-20 12:08:00,
2013-07-20 08:10:00,81.6,70.0,29.84,NNW,329,3.0,6.0,68,0.00,,,0.00,Wunderground v.1.15,2013-07-20 12:10:00,
2013-07-20 08:12:00,81.6,70.0,29.84,NNW,328,1.0,6.0,68,0.00,,,0.00,Wunderground v.1.15,2013-07-20 12:12:00,
2013-07-20 08:13:00,81.6,70.4,29.84,WNW,290,0.0,6.0,69,0.00,,,0.00,Wunderground v.1.15,2013-07-20 12:13:00,
2013-07-20 08:15:00,81.8,70.2,29.84,SW,227,1.0,6.0,68,0.00,,,0.00,Wunderground v.1.15,2013-07-20 12:15:00,
2013-07-20 08:17:00,81.8,70.2,29.84,NW,316,3.0,9.0,68,0.00,,,0.00,Wunderground v.1.15,2013-07-20 12:17:00,
2013-07-20 08:18:00,81.8,70.2,29.84,South,184,3.0,6.0,68,0.00,,,0.00,Wunderground v.1.15,2013-07-20 12:18:00,
2013-07-20 08:20:00,81.8,70.2,29.84,WSW,248,0.0,6.0,68,0.00,,,0.00,Wunderground v.1.15,2013-07-20 12:20:00,
2013-07-20 08:22:00,81.8,70.2,29.84,West,262,1.0,6.0,68,0.00,,,0.00,Wunderground v.1.15,2013-07-20 12:22:00,
2013-07-20 08:24:00,81.8,70.2,29.84,WSW,253,0.0,6.0,68,0.00,,,0.00,Wunderground v.1.15,2013-07-20 12:24:00,
2013-07-20 08:25:00,82.0,70.4,29.84,SSE,159,0.0,6.0,68,0.00,,,0.00,Wunderground v.1.15,2013-07-20 12:25:00,
2013-07-20 08:28:00,82.2,70.6,29.84,West,271,1.0,2.0,68,0.00,,,0.00,Wunderground v.1.15,2013-07-20 12:28:00,
2013-07-20 08:29:00,82.2,70.6,29.84,West,271,0.0,2.0,68,0.00,,,0.00,Wunderground v.1.15,2013-07-20 12:29:00,
2013-07-20 08:31:00,82.2,70.6,29.84,West,260,0.0,5.0,68,0.00,,,0.00,Wunderground v.1.15,2013-07-20 12:31:00,
2013-07-20 08:33:00,82.4,70.8,29.83,NW,304,6.0,10.0,68,0.00,,,0.00,Wunderground v.1.15,2013-07-20 12:33:00,
2013-07-20 08:34:00,82.4,70.3,29.83,NW,304,0.0,10.0,67,0.00,,,0.00,Wunderground v.1.15,2013-07-20 12:34:00,
2013-07-20 08:35:00,82.4,70.3,29.84,NW,304,0.0,10.0,67,0.00,,,0.00,Wunderground v.1.15,2013-07-20 12:35:00,
2013-07-20 08:36:00,82.4,70.8,29.83,SW,224,1.0,10.0,68,0.00,,,0.00,Wunderground v.1.15,2013-07-20 12:36:00,
2013-07-20 08:39:00,82.4,70.8,29.83,WNW,284,5.0,5.0,68,0.00,,,0.00,Wunderground v.1.15,2013-07-20 12:39:00,
2013-07-20 08:40:00,82.6,71.0,29.83,NNW,327,4.0,6.0,68,0.00,,,0.00,Wunderground v.1.15,2013-07-20 12:40:00,
2013-07-20 08:41:00,82.6,71.0,29.83,SW,217,0.0,6.0,68,0.00,,,0.00,Wunderground v.1.15,2013-07-20 12:41:00,
2013-07-20 08:44:00,82.6,71.0,29.83,WSW,255,1.0,9.0,68,0.00,,,0.00,Wunderground v.1.15,2013-07-20 12:44:00,
2013-07-20 08:45:00,82.8,71.2,29.83,NW,314,1.0,9.0,68,0.00,,,0.00,Wunderground v.1.15,2013-07-20 12:45:00,
2013-07-20 08:46:00,82.8,71.2,29.83,NW,314,0.0,9.0,68,0.00,,,0.00,Wunderground v.1.15,2013-07-20 12:46:00,
2013-07-20 08:47:00,82.8,70.7,29.83,SSW,213,0.0,9.0,67,0.00,,,0.00,Wunderground v.1.15,2013-07-20 12:47:00,
2013-07-20 08:49:00,82.8,71.2,29.83,SW,229,4.0,7.0,68,0.00,,,0.00,Wunderground v.1.15,2013-07-20 12:49:00,
2013-07-20 08:51:00,83.0,70.9,29.83,SSW,200,1.0,7.0,67,0.00,,,0.00,Wunderground v.1.15,2013-07-20 12:51:00,
2013-07-20 08:52:00,83.0,70.9,29.83,West,273,1.0,7.0,67,0.00,,,0.00,Wunderground v.1.15,2013-07-20 12:52:00,
2013-07-20 08:55:00,83.0,71.3,29.83,West,259,1.0,7.0,68,0.00,,,0.00,Wunderground v.1.15,2013-07-20 12:55:00,
2013-07-20 08:56:00,83.2,71.5,29.83,NNW,331,2.0,7.0,68,0.00,,,0.00,Wunderground v.1.15,2013-07-20 12:56:00,
2013-07-20 08:57:00,83.2,71.1,29.83,West,268,2.0,7.0,67,0.00,,,0.00,Wunderground v.1.15,2013-07-20 12:57:00,
2013-07-20 09:00:00,83.2,71.5,29.83,SSW,193,2.0,3.0,68,0.00,,,0.00,Wunderground v.1.15,2013-07-20 13:00:00,
2013-07-20 09:01:00,83.2,71.1,29.83,South,186,0.0,3.0,67,0.00,,,0.00,Wunderground v.1.15,2013-07-20 13:01:00,
2013-07-20 09:02:00,83.2,71.1,29.83,South,186,0.0,3.0,67,0.00,,,0.00,Wunderground v.1.15,2013-07-20 13:02:00,
2013-07-20 09:05:00,83.2,71.1,29.83,SW,236,0.0,6.0,67,0.00,,,0.00,Wunderground v.1.15,2013-07-20 13:05:00,
2013-07-20 09:06:00,83.4,71.3,29.83,WSW,237,0.0,6.0,67,0.00,,,0.00,Wunderground v.1.15,2013-07-20 13:06:00,
2013-07-20 09:07:00,83.4,71.3,29.83,WSW,237,1.0,6.0,67,0.00,,,0.00,Wunderground v.1.15,2013-07-20 13:07:00,
2013-07-20 09:10:00,83.4,70.8,29.83,SSE,168,0.0,4.0,66,0.00,,,0.00,Wunderground v.1.15,2013-07-20 13:10:00,
2013-07-20 09:12:00,83.4,70.8,29.83,WSW,258,1.0,8.0,66,0.00,,,0.00,Wunderground v.1.15,2013-07-20 13:12:00,
2013-07-20 09:16:00,83.4,70.8,29.83,SW,232,10.0,10.0,66,0.00,,,0.00,Wunderground v.1.15,2013-07-20 13:16:00,
2013-07-20 09:17:00,83.4,71.3,29.83,WSW,246,0.0,10.0,67,0.00,,,0.00,Wunderground v.1.15,2013-07-20 13:17:00,
2013-07-20 09:18:00,83.4,71.3,29.83,WSW,246,0.0,2.0,67,0.00,,,0.00,Wunderground v.1.15,2013-07-20 13:18:00,
2013-07-20 09:22:00,83.4,70.8,29.83,WNW,288,0.0,2.0,66,0.00,,,0.00,Wunderground v.1.15,2013-07-20 13:22:00,
2013-07-20 09:23:00,83.4,70.8,29.83,WNW,288,0.0,2.0,66,0.00,,,0.00,Wunderground v.1.15,2013-07-20 13:23:00,
2013-07-20 09:27:00,83.8,71.2,29.83,West,271,0.0,3.0,66,0.00,,,0.00,Wunderground v.1.15,2013-07-20 13:27:00,
2013-07-20 09:28:00,83.8,71.2,29.83,NNE,19,0.0,0.0,66,0.00,,,0.00,Wunderground v.1.15,2013-07-20 13:28:00,
2013-07-20 09:29:00,83.8,71.2,29.83,NNE,21,0.0,1.0,66,0.00,,,0.00,Wunderground v.1.15,2013-07-20 13:29:00,
2013-07-20 09:32:00,84.0,71.0,29.83,WSW,251,1.0,5.0,65,0.00,,,0.00,Wunderground v.1.15,2013-07-20 13:32:00,
2013-07-20 09:33:00,84.0,71.0,29.83,West,259,0.0,5.0,65,0.00,,,0.00,Wunderground v.1.15,2013-07-20 13:33:00,
2013-07-20 09:34:00,84.0,71.0,29.83,West,259,1.0,5.0,65,0.00,,,0.00,Wunderground v.1.15,2013-07-20 13:34:00,
2013-07-20 09:37:00,84.1,70.6,29.83,SW,232,2.0,5.0,64,0.00,,,0.00,Wunderground v.1.15,2013-07-20 13:37:00,
2013-07-20 09:38:00,84.3,70.8,29.83,SW,232,1.0,1.0,64,0.00,,,0.00,Wunderground v.1.15,2013-07-20 13:38:00,
2013-07-20 09:39:00,84.3,71.2,29.83,WSW,237,0.0,3.0,65,0.00,,,0.00,Wunderground v.1.15,2013-07-20 13:39:00,
2013-07-20 09:41:00,84.3,70.8,29.83,WSW,240,2.0,6.0,64,0.00,,,0.00,Wunderground v.1.15,2013-07-20 13:41:00,
2013-07-20 09:43:00,84.5,71.4,29.83,NE,36,1.0,6.0,65,0.00,,,0.00,Wunderground v.1.15,2013-07-20 13:43:00,
2013-07-20 09:44:00,84.5,71.0,29.83,NNE,33,0.0,6.0,64,0.00,,,0.00,Wunderground v.1.15,2013-07-20 13:44:00,
2013-07-20 09:47:00,84.7,71.6,29.83,WNW,285,1.0,6.0,65,0.00,,,0.00,Wunderground v.1.15,2013-07-20 13:47:00,
2013-07-20 09:48:00,84.7,71.6,29.83,WNW,285,1.0,2.0,65,0.00,,,0.00,Wunderground v.1.15,2013-07-20 13:48:00,
2013-07-20 09:49:00,84.9,72.3,29.83,WSW,241,3.0,5.0,66,0.00,,,0.00,Wunderground v.1.15,2013-07-20 13:49:00,
2013-07-20 09:50:00,84.9,72.3,29.83,SW,229,5.0,5.0,66,0.00,,,0.00,Wunderground v.1.15,2013-07-20 13:50:00,
2013-07-20 09:52:00,84.9,72.3,29.82,NW,308,2.0,6.0,66,0.00,,,0.00,Wunderground v.1.15,2013-07-20 13:52:00,
2013-07-20 09:53:00,84.7,71.6,29.82,West,262,2.0,6.0,65,0.00,,,0.00,Wunderground v.1.15,2013-07-20 13:53:00,
2013-07-20 09:55:00,84.7,72.1,29.82,WSW,257,2.0,6.0,66,0.00,,,0.00,Wunderground v.1.15,2013-07-20 13:55:00,
2013-07-20 09:56:00,84.7,71.6,29.82,West,262,3.0,6.0,65,0.00,,,0.00,Wunderground v.1.15,2013-07-20 13:56:00,
2013-07-20 09:57:00,84.7,72.1,29.82,SSW,207,2.0,6.0,66,0.00,,,0.00,Wunderground v.1.15,2013-07-20 13:57:00,
2013-07-20 09:58:00,84.7,72.1,29.82,WSW,255,0.0,2.0,66,0.00,,,0.00,Wunderground v.1.15,2013-07-20 13:58:00,
2013-07-20 09:59:00,84.7,71.6,29.83,West,259,1.0,6.0,65,0.00,,,0.00,Wunderground v.1.15,2013-07-20 13:59:00,
2013-07-20 10:00:00,84.7,71.6,29.82,WSW,252,4.0,6.0,65,0.00,,,0.00,Wunderground v.1.15,2013-07-20 14:00:00,
2013-07-20 10:04:00,84.7,72.1,29.83,WNW,284,0.0,7.0,66,0.00,,,0.00,Wunderground v.1.15,2013-07-20 14:04:00,
2013-07-20 10:05:00,84.7,72.1,29.83,WNW,284,0.0,7.0,66,0.00,,,0.00,Wunderground v.1.15,2013-07-20 14:05:00,
2013-07-20 10:06:00,84.7,72.1,29.83,NNW,331,1.0,7.0,66,0.00,,,0.00,Wunderground v.1.15,2013-07-20 14:06:00,
2013-07-20 10:09:00,84.7,71.6,29.83,West,267,1.0,11.0,65,0.00,,,0.00,Wunderground v.1.15,2013-07-20 14:09:00,
2013-07-20 10:10:00,84.7,71.6,29.83,West,263,3.0,11.0,65,0.00,,,0.00,Wunderground v.1.15,2013-07-20 14:10:00,
2013-07-20 10:11:00,84.9,72.3,29.82,WNW,282,2.0,11.0,66,0.00,,,0.00,Wunderground v.1.15,2013-07-20 14:11:00,
2013-07-20 10:12:00,84.9,72.3,29.83,WNW,282,1.0,11.0,66,0.00,,,0.00,Wunderground v.1.15,2013-07-20 14:12:00,
2013-07-20 10:14:00,85.1,72.0,29.83,WNW,301,0.0,11.0,65,0.00,,,0.00,Wunderground v.1.15,2013-07-20 14:14:00,
2013-07-20 10:15:00,85.3,72.2,29.83,WNW,301,0.0,11.0,65,0.00,,,0.00,Wunderground v.1.15,2013-07-20 14:15:00,
2013-07-20 10:16:00,85.5,72.4,29.83,North,5,1.0,11.0,65,0.00,,,0.00,Wunderground v.1.15,2013-07-20 14:16:00,
2013-07-20 10:17:00,85.5,71.9,29.83,NNW,348,1.0,11.0,64,0.00,,,0.00,Wunderground v.1.15,2013-07-20 14:17:00,
2013-07-20 10:19:00,85.7,72.6,29.83,WNW,303,2.0,5.0,65,0.00,,,0.00,Wunderground v.1.15,2013-07-20 14:19:00,
2013-07-20 10:20:00,85.7,72.1,29.83,WNW,293,0.0,5.0,64,0.00,,,0.00,Wunderground v.1.15,2013-07-20 14:20:00,
2013-07-20 10:22:00,85.7,72.1,29.83,South,191,1.0,5.0,64,0.00,,,0.00,Wunderground v.1.15,2013-07-20 14:22:00,
2013-07-20 10:23:00,85.7,72.1,29.83,WSW,242,0.0,5.0,64,0.00,,,0.00,Wunderground v.1.15,2013-07-20 14:23:00,
2013-07-20 10:25:00,85.9,72.8,29.83,NW,307,0.0,5.0,65,0.00,,,0.00,Wunderground v.1.15,2013-07-20 14:25:00,
2013-07-20 10:26:00,85.9,72.8,29.83,NW,306,2.0,5.0,65,0.00,,,0.00,Wunderground v.1.15,2013-07-20 14:26:00,
2013-07-20 10:27:00,85.9,72.3,29.83,NNW,343,2.0,5.0,64,0.00,,,0.00,Wunderground v.1.15,2013-07-20 14:27:00,
2013-07-20 10:28:00,86.1,72.5,29.83,NNW,343,2.0,2.0,64,0.00,,,0.00,Wunderground v.1.15,2013-07-20 14:28:00,
2013-07-20 10:30:00,86.1,73.0,29.83,WNW,298,0.0,5.0,65,0.00,,,0.00,Wunderground v.1.15,2013-07-20 14:30:00,
2013-07-20 10:31:00,86.1,73.0,29.83,WNW,298,0.0,5.0,65,0.00,,,0.00,Wunderground v.1.15,2013-07-20 14:31:00,
2013-07-20 10:32:00,86.3,73.1,29.83,SW,234,5.0,5.0,65,0.00,,,0.00,Wunderground v.1.15,2013-07-20 14:32:00,
2013-07-20 10:33:00,86.3,72.2,29.82,WNW,300,0.0,7.0,63,0.00,,,0.00,Wunderground v.1.15,2013-07-20 14:33:00,
2013-07-20 10:35:00,86.5,72.4,29.83,South,169,1.0,7.0,63,0.00,,,0.00,Wunderground v.1.15,2013-07-20 14:35:00,
2013-07-20 10:36:00,86.5,72.9,29.82,SSW,193,4.0,7.0,64,0.00,,,0.00,Wunderground v.1.15,2013-07-20 14:36:00,
2013-07-20 10:37:00,86.5,72.4,29.83,WSW,254,2.0,7.0,63,0.00,,,0.00,Wunderground v.1.15,2013-07-20 14:37:00,
2013-07-20 10:38:00,86.5,72.4,29.83,West,264,3.0,3.0,63,0.00,,,0.00,Wunderground v.1.15,2013-07-20 14:38:00,
2013-07-20 10:39:00,86.5,72.4,29.83,NNW,333,0.0,5.0,63,0.00,,,0.00,Wunderground v.1.15,2013-07-20 14:39:00,
2013-07-20 10:41:00,86.7,72.6,29.83,WSW,244,5.0,10.0,63,0.00,,,0.00,Wunderground v.1.15,2013-07-20 14:41:00,
2013-07-20 10:42:00,86.7,72.6,29.83,WSW,252,0.0,10.0,63,0.00,,,0.00,Wunderground v.1.15,2013-07-20 14:42:00,
2013-07-20 10:43:00,86.7,72.1,29.83,WSW,248,0.0,12.0,62,0.00,,,0.00,Wunderground v.1.15,2013-07-20 14:43:00,
2013-07-20 10:45:00,87.0,73.3,29.82,WSW,239,1.0,12.0,64,0.00,,,0.00,Wunderground v.1.15,2013-07-20 14:45:00,
2013-07-20 10:46:00,87.0,73.3,29.82,South,178,2.0,12.0,64,0.00,,,0.00,Wunderground v.1.15,2013-07-20 14:46:00,
2013-07-20 10:47:00,87.0,72.4,29.82,WSW,238,4.0,12.0,62,0.00,,,0.00,Wunderground v.1.15,2013-07-20 14:47:00,
2013-07-20 10:48:00,87.0,72.4,29.82,WSW,239,1.0,2.0,62,0.00,,,0.00,Wunderground v.1.15,2013-07-20 14:48:00,
2013-07-20 10:49:00,87.2,73.1,29.82,West,270,1.0,5.0,63,0.00,,,0.00,Wunderground v.1.15,2013-07-20 14:49:00,
2013-07-20 10:50:00,87.2,72.6,29.82,WSW,239,3.0,8.0,62,0.00,,,0.00,Wunderground v.1.15,2013-07-20 14:50:00,
2013-07-20 10:52:00,87.4,73.3,29.82,WSW,252,1.0,8.0,63,0.00,,,0.00,Wunderground v.1.15,2013-07-20 14:52:00,
2013-07-20 10:53:00,87.6,73.4,29.82,WSW,242,2.0,8.0,63,0.00,,,0.00,Wunderground v.1.15,2013-07-20 14:53:00,
2013-07-20 10:54:00,87.8,73.2,29.82,SSW,213,3.0,8.0,62,0.00,,,0.00,Wunderground v.1.15,2013-07-20 14:54:00,
2013-07-20 10:55:00,87.8,73.2,29.82,SSW,194,1.0,8.0,62,0.00,,,0.00,Wunderground v.1.15,2013-07-20 14:55:00,
2013-07-20 10:57:00,87.8,72.2,29.82,West,280,0.0,8.0,60,0.00,,,0.00,Wunderground v.1.15,2013-07-20 14:57:00,
2013-07-20 10:58:00,87.8,72.2,29.82,WSW,249,4.0,5.0,60,0.00,,,0.00,Wunderground v.1.15,2013-07-20 14:58:00,
2013-07-20 11:00:00,87.8,72.7,29.83,West,266,1.0,7.0,61,0.00,,,0.00,Wunderground v.1.15,2013-07-20 15:00:00,
2013-07-20 11:03:00,87.8,72.7,29.83,West,271,4.0,7.0,61,0.00,,,0.00,Wunderground v.1.15,2013-07-20 15:03:00,
2013-07-20 11:04:00,87.8,72.7,29.83,WSW,250,4.0,7.0,61,0.00,,,0.00,Wunderground v.1.15,2013-07-20 15:04:00,
2013-07-20 11:05:00,87.6,72.0,29.83,WNW,294,3.0,11.0,60,0.00,,,0.00,Wunderground v.1.15,2013-07-20 15:05:00,
2013-07-20 11:08:00,87.6,72.5,29.82,SW,233,1.0,2.0,61,0.00,,,0.00,Wunderground v.1.15,2013-07-20 15:08:00,
2013-07-20 11:09:00,87.6,72.5,29.82,SSW,202,3.0,4.0,61,0.00,,,0.00,Wunderground v.1.15,2013-07-20 15:09:00,
2013-07-20 11:11:00,87.8,72.7,29.82,WNW,298,0.0,6.0,61,0.00,,,0.00,Wunderground v.1.15,2013-07-20 15:11:00,
2013-07-20 11:12:00,88.0,72.4,29.82,WNW,298,0.0,6.0,60,0.00,,,0.00,Wunderground v.1.15,2013-07-20 15:12:00,
2013-07-20 11:13:00,88.2,73.0,29.82,WNW,298,0.0,6.0,61,0.00,,,0.00,Wunderground v.1.15,2013-07-20 15:13:00,
2013-07-20 11:14:00,88.2,72.1,29.82,West,273,1.0,6.0,59,0.00,,,0.00,Wunderground v.1.15,2013-07-20 15:14:00,
2013-07-20 11:16:00,88.2,72.1,29.81,WNW,286,2.0,7.0,59,0.00,,,0.00,Wunderground v.1.15,2013-07-20 15:16:00,
2013-07-20 11:17:00,88.2,72.1,29.81,WNW,286,0.0,7.0,59,0.00,,,0.00,Wunderground v.1.15,2013-07-20 15:17:00,
2013-07-20 11:18:00,88.2,72.6,29.81,NW,315,2.0,6.0,60,0.00,,,0.00,Wunderground v.1.15,2013-07-20 15:18:00,
2013-07-20 11:19:00,88.2,72.6,29.81,NW,323,2.0,6.0,60,0.00,,,0.00,Wunderground v.1.15,2013-07-20 15:19:00,
2013-07-20 11:21:00,88.4,72.7,29.82,NW,307,2.0,6.0,60,0.00,,,0.00,Wunderground v.1.15,2013-07-20 15:21:00,
2013-07-20 11:23:00,88.4,72.7,29.82,WSW,237,0.0,6.0,60,0.00,,,0.00,Wunderground v.1.15,2013-07-20 15:23:00,
2013-07-20 11:24:00,88.6,72.4,29.82,SSE,154,6.0,9.0,59,0.00,,,0.00,Wunderground v.1.15,2013-07-20 15:24:00,
2013-07-20 11:25:00,88.6,71.4,29.82,SW,234,13.0,13.0,57,0.00,,,0.00,Wunderground v.1.15,2013-07-20 15:25:00,
2013-07-20 11:27:00,88.8,72.1,29.82,South,188,1.0,13.0,58,0.00,,,0.00,Wunderground v.1.15,2013-07-20 15:27:00,
2013-07-20 11:28:00,88.8,72.1,29.81,South,188,0.0,3.0,58,0.00,,,0.00,Wunderground v.1.15,2013-07-20 15:28:00,
2013-07-20 11:29:00,88.8,72.1,29.82,South,188,0.0,3.0,58,0.00,,,0.00,Wunderground v.1.15,2013-07-20 15:29:00,
2013-07-20 11:30:00,89.0,72.8,29.82,SW,231,4.0,4.0,59,0.00,,,0.00,Wunderground v.1.15,2013-07-20 15:30:00,
2013-07-20 11:33:00,89.0,71.8,29.81,WNW,292,0.0,6.0,57,0.00,,,0.00,Wunderground v.1.15,2013-07-20 15:33:00,
2013-07-20 11:34:00,89.3,73.1,29.82,WSW,247,5.0,6.0,59,0.00,,,0.00,Wunderground v.1.15,2013-07-20 15:34:00,
2013-07-20 11:35:00,89.3,73.1,29.81,WSW,241,5.0,8.0,59,0.00,,,0.00,Wunderground v.1.15,2013-07-20 15:35:00,
2013-07-20 11:38:00,89.3,72.6,29.81,NW,312,0.0,3.0,58,0.00,,,0.00,Wunderground v.1.15,2013-07-20 15:38:00,
2013-07-20 11:39:00,89.5,72.3,29.81,WSW,238,9.0,9.0,57,0.00,,,0.00,Wunderground v.1.15,2013-07-20 15:39:00,
2013-07-20 11:40:00,89.5,72.3,29.81,SW,232,5.0,9.0,57,0.00,,,0.00,Wunderground v.1.15,2013-07-20 15:40:00,
2013-07-20 11:41:00,89.5,72.3,29.81,SW,232,0.0,9.0,57,0.00,,,0.00,Wunderground v.1.15,2013-07-20 15:41:00,
2013-07-20 11:43:00,89.9,73.1,29.81,WNW,301,3.0,9.0,58,0.00,,,0.00,Wunderground v.1.15,2013-07-20 15:43:00,
2013-07-20 11:44:00,89.9,72.1,29.81,West,278,0.0,9.0,56,0.00,,,0.00,Wunderground v.1.15,2013-07-20 15:44:00,
2013-07-20 11:45:00,89.9,72.1,29.81,West,281,3.0,9.0,56,0.00,,,0.00,Wunderground v.1.15,2013-07-20 15:45:00,
2013-07-20 11:46:00,90.1,71.8,29.81,NW,308,4.0,9.0,55,0.00,,,0.00,Wunderground v.1.15,2013-07-20 15:46:00,
2013-07-20 11:48:00,90.1,72.3,29.81,West,264,4.0,7.0,56,0.00,,,0.00,Wunderground v.1.15,2013-07-20 15:48:00,
2013-07-20 11:49:00,90.1,71.8,29.81,WNW,289,2.0,9.0,55,0.00,,,0.00,Wunderground v.1.15,2013-07-20 15:49:00,
2013-07-20 11:50:00,89.9,72.1,29.81,North,11,0.0,9.0,56,0.00,,,0.00,Wunderground v.1.15,2013-07-20 15:50:00,
2013-07-20 11:52:00,89.9,72.1,29.81,NW,323,2.0,9.0,56,0.00,,,0.00,Wunderground v.1.15,2013-07-20 15:52:00,
2013-07-20 11:54:00,89.9,72.1,29.81,West,261,5.0,9.0,56,0.00,,,0.00,Wunderground v.1.15,2013-07-20 15:54:00,
2013-07-20 11:55:00,89.9,72.1,29.81,NNW,329,0.0,9.0,56,0.00,,,0.00,Wunderground v.1.15,2013-07-20 15:55:00,
2013-07-20 11:56:00,90.1,72.3,29.81,WNW,288,2.0,9.0,56,0.00,,,0.00,Wunderground v.1.15,2013-07-20 15:56:00,
2013-07-20 11:57:00,90.1,72.3,29.80,East,99,3.0,9.0,56,0.00,,,0.00,Wunderground v.1.15,2013-07-20 15:57:00,
2013-07-20 11:59:00,90.5,72.7,29.81,WSW,257,2.0,3.0,56,0.00,,,0.00,Wunderground v.1.15,2013-07-20 15:59:00,
2013-07-20 12:00:00,90.5,72.1,29.80,WSW,257,0.0,3.0,55,0.00,,,0.00,Wunderground v.1.15,2013-07-20 16:00:00,
2013-07-20 12:01:00,90.5,72.1,29.81,SW,229,1.0,3.0,55,0.00,,,0.00,Wunderground v.1.15,2013-07-20 16:01:00,
2013-07-20 12:02:00,90.5,72.1,29.81,WNW,289,3.0,5.0,55,0.00,,,0.00,Wunderground v.1.15,2013-07-20 16:02:00,
2013-07-20 12:05:00,90.5,72.7,29.80,NW,325,5.0,6.0,56,0.00,,,0.00,Wunderground v.1.15,2013-07-20 16:05:00,
2013-07-20 12:06:00,90.5,72.7,29.81,WNW,296,2.0,6.0,56,0.00,,,0.00,Wunderground v.1.15,2013-07-20 16:06:00,
2013-07-20 12:07:00,90.5,72.7,29.80,SW,214,5.0,6.0,56,0.00,,,0.00,Wunderground v.1.15,2013-07-20 16:07:00,
2013-07-20 12:10:00,90.3,72.5,29.80,West,273,2.0,6.0,56,0.00,,,0.00,Wunderground v.1.15,2013-07-20 16:10:00,
2013-07-20 12:12:00,90.3,72.5,29.80,SW,222,8.0,8.0,56,0.00,,,0.00,Wunderground v.1.15,2013-07-20 16:12:00,
2013-07-20 12:15:00,90.1,72.3,29.80,WSW,252,2.0,11.0,56,0.00,,,0.00,Wunderground v.1.15,2013-07-20 16:15:00,
2013-07-20 12:17:00,89.9,72.6,29.80,WSW,251,0.0,11.0,57,0.00,,,0.00,Wunderground v.1.15,2013-07-20 16:17:00,
2013-07-20 12:21:00,89.9,72.6,29.80,WNW,293,0.0,7.0,57,0.00,,,0.00,Wunderground v.1.15,2013-07-20 16:21:00,
2013-07-20 12:22:00,89.9,73.1,29.80,WNW,293,0.0,7.0,58,0.00,,,0.00,Wunderground v.1.15,2013-07-20 16:22:00,
2013-07-20 12:23:00,89.9,73.1,29.80,WNW,300,1.0,7.0,58,0.00,,,0.00,Wunderground v.1.15,2013-07-20 16:23:00,
2013-07-20 12:27:00,89.9,72.1,29.80,SSW,193,2.0,12.0,56,0.00,,,0.00,Wunderground v.1.15,2013-07-20 16:27:00,
2013-07-20 12:28:00,89.7,72.4,29.80,WNW,282,4.0,8.0,57,0.00,,,0.00,Wunderground v.1.15,2013-07-20 16:28:00,
2013-07-20 12:29:00,89.7,72.4,29.80,West,268,2.0,8.0,57,0.00,,,0.00,Wunderground v.1.15,2013-07-20 16:29:00,
2013-07-20 12:32:00,89.7,72.4,29.80,West,269,2.0,8.0,57,0.00,,,0.00,Wunderground v.1.15,2013-07-20 16:32:00,
2013-07-20 12:34:00,89.7,72.4,29.80,NNW,331,2.0,8.0,57,0.00,,,0.00,Wunderground v.1.15,2013-07-20 16:34:00,
2013-07-20 12:37:00,89.9,72.6,29.80,WNW,292,1.0,10.0,57,0.00,,,0.00,Wunderground v.1.15,2013-07-20 16:37:00,
2013-07-20 12:38:00,89.9,72.6,29.80,NNE,19,3.0,5.0,57,0.00,,,0.00,Wunderground v.1.15,2013-07-20 16:38:00,
2013-07-20 12:39:00,89.9,72.6,29.80,SW,230,2.0,5.0,57,0.00,,,0.00,Wunderground v.1.15,2013-07-20 16:39:00,
2013-07-20 12:42:00,90.1,72.3,29.80,NW,308,2.0,5.0,56,0.00,,,0.00,Wunderground v.1.15,2013-07-20 16:42:00,
2013-07-20 12:43:00,90.1,72.8,29.80,SW,224,1.0,5.0,57,0.00,,,0.00,Wunderground v.1.15,2013-07-20 16:43:00,
2013-07-20 12:44:00,90.3,73.5,29.80,NW,304,5.0,5.0,58,0.00,,,0.00,Wunderground v.1.15,2013-07-20 16:44:00,
2013-07-20 12:47:00,90.7,72.8,29.79,NNW,330,6.0,9.0,56,0.00,,,0.00,Wunderground v.1.15,2013-07-20 16:47:00,
2013-07-20 12:48:00,90.7,72.8,29.79,SW,226,0.0,7.0,56,0.00,,,0.00,Wunderground v.1.15,2013-07-20 16:48:00,
2013-07-20 12:49:00,90.7,73.4,29.79,NW,320,5.0,7.0,57,0.00,,,0.00,Wunderground v.1.15,2013-07-20 16:49:00,
2013-07-20 12:50:00,90.7,73.4,29.79,NW,315,9.0,9.0,57,0.00,,,0.00,Wunderground v.1.15,2013-07-20 16:50:00,
2013-07-20 12:52:00,91.2,73.3,29.79,West,259,4.0,9.0,56,0.00,,,0.00,Wunderground v.1.15,2013-07-20 16:52:00,
2013-07-20 12:53:00,91.2,73.3,29.79,SW,224,4.0,9.0,56,0.00,,,0.00,Wunderground v.1.15,2013-07-20 16:53:00,
2013-07-20 12:54:00,91.4,73.0,29.79,West,267,4.0,10.0,55,0.00,,,0.00,Wunderground v.1.15,2013-07-20 16:54:00,
2013-07-20 12:55:00,91.4,72.4,29.79,South,188,3.0,10.0,54,0.00,,,0.00,Wunderground v.1.15,2013-07-20 16:55:00,
2013-07-20 12:58:00,91.8,73.3,29.79,WSW,255,2.0,3.0,55,0.00,,,0.00,Wunderground v.1.15,2013-07-20 16:58:00,
2013-07-20 12:59:00,92.1,73.1,29.79,WNW,284,1.0,7.0,54,0.00,,,0.00,Wunderground v.1.15,2013-07-20 16:59:00,
2013-07-20 13:00:00,92.1,73.1,29.79,ESE,116,4.0,7.0,54,0.00,,,0.00,Wunderground v.1.15,2013-07-20 17:00:00,
2013-07-20 13:02:00,92.1,71.9,29.79,SSW,209,3.0,7.0,52,0.00,,,0.00,Wunderground v.1.15,2013-07-20 17:02:00,
2013-07-20 13:04:00,91.8,72.2,29.79,SSW,200,1.0,7.0,53,0.00,,,0.00,Wunderground v.1.15,2013-07-20 17:04:00,
2013-07-20 13:05:00,91.6,71.5,29.79,NW,313,5.0,7.0,52,0.00,,,0.00,Wunderground v.1.15,2013-07-20 17:05:00,
2013-07-20 13:06:00,91.6,71.5,29.79,SSE,148,3.0,10.0,52,0.00,,,0.00,Wunderground v.1.15,2013-07-20 17:06:00,
2013-07-20 13:08:00,91.2,72.2,29.79,WSW,243,1.0,3.0,54,0.00,,,0.00,Wunderground v.1.15,2013-07-20 17:08:00,
2013-07-20 13:10:00,90.7,71.8,29.79,SSW,193,3.0,7.0,54,0.00,,,0.00,Wunderground v.1.15,2013-07-20 17:10:00,
2013-07-20 13:11:00,90.7,71.8,29.79,South,180,0.0,7.0,54,0.00,,,0.00,Wunderground v.1.15,2013-07-20 17:11:00,
2013-07-20 13:13:00,90.7,71.8,29.79,WSW,249,6.0,7.0,54,0.00,,,0.00,Wunderground v.1.15,2013-07-20 17:13:00,
2013-07-20 13:15:00,91.0,71.5,29.78,SW,236,2.0,7.0,53,0.00,,,0.00,Wunderground v.1.15,2013-07-20 17:15:00,
2013-07-20 13:17:00,91.2,71.7,29.78,NW,317,9.0,10.0,53,0.00,,,0.00,Wunderground v.1.15,2013-07-20 17:17:00,
2013-07-20 13:18:00,91.2,71.7,29.78,NW,315,1.0,6.0,53,0.00,,,0.00,Wunderground v.1.15,2013-07-20 17:18:00,
2013-07-20 13:20:00,91.2,72.2,29.78,WNW,297,0.0,12.0,54,0.00,,,0.00,Wunderground v.1.15,2013-07-20 17:20:00,
2013-07-20 13:21:00,91.4,71.9,29.78,SW,228,4.0,12.0,53,0.00,,,0.00,Wunderground v.1.15,2013-07-20 17:21:00,
2013-07-20 13:22:00,91.4,72.4,29.78,SW,231,0.0,12.0,54,0.00,,,0.00,Wunderground v.1.15,2013-07-20 17:22:00,
2013-07-20 13:23:00,91.6,72.6,29.78,NW,321,3.0,12.0,54,0.00,,,0.00,Wunderground v.1.15,2013-07-20 17:23:00,
2013-07-20 13:26:00,92.3,73.2,29.78,WSW,250,2.0,12.0,54,0.00,,,0.00,Wunderground v.1.15,2013-07-20 17:26:00,
2013-07-20 13:27:00,92.5,72.3,29.78,NW,321,7.0,12.0,52,0.00,,,0.00,Wunderground v.1.15,2013-07-20 17:27:00,
2013-07-20 13:28:00,92.7,72.5,29.78,SW,234,11.0,11.0,52,0.00,,,0.00,Wunderground v.1.15,2013-07-20 17:28:00,
2013-07-20 13:31:00,92.7,72.5,29.78,NNW,333,1.0,11.0,52,0.00,,,0.00,Wunderground v.1.15,2013-07-20 17:31:00,
2013-07-20 13:32:00,92.7,72.5,29.78,NNW,333,2.0,11.0,52,0.00,,,0.00,Wunderground v.1.15,2013-07-20 17:32:00,
2013-07-20 13:33:00,92.7,71.9,29.78,SW,221,4.0,12.0,51,0.00,,,0.00,Wunderground v.1.15,2013-07-20 17:33:00,
2013-07-20 13:34:00,92.9,70.9,29.78,SSE,155,5.0,12.0,49,0.00,,,0.00,Wunderground v.1.15,2013-07-20 17:34:00,
2013-07-20 13:37:00,92.9,70.9,29.78,West,281,0.0,12.0,49,0.00,,,0.00,Wunderground v.1.15,2013-07-20 17:37:00,
2013-07-20 13:38:00,93.2,71.8,29.78,SW,224,1.0,3.0,50,0.00,,,0.00,Wunderground v.1.15,2013-07-20 17:38:00,
2013-07-20 13:39:00,93.2,71.2,29.78,West,276,4.0,4.0,49,0.00,,,0.00,Wunderground v.1.15,2013-07-20 17:39:00,
2013-07-20 13:42:00,93.4,70.8,29.77,WSW,254,5.0,5.0,48,0.00,,,0.00,Wunderground v.1.15,2013-07-20 17:42:00,
2013-07-20 13:43:00,93.4,70.8,29.77,SSW,213,2.0,5.0,48,0.00,,,0.00,Wunderground v.1.15,2013-07-20 17:43:00,
2013-07-20 13:44:00,93.6,71.6,29.77,SE,128,3.0,5.0,49,0.00,,,0.00,Wunderground v.1.15,2013-07-20 17:44:00,
2013-07-20 13:45:00,93.6,71.0,29.77,NW,326,3.0,5.0,48,0.00,,,0.00,Wunderground v.1.15,2013-07-20 17:45:00,
2013-07-20 13:48:00,93.6,71.6,29.77,SW,225,1.0,2.0,49,0.00,,,0.00,Wunderground v.1.15,2013-07-20 17:48:00,
2013-07-20 13:49:00,93.8,71.1,29.77,NE,36,0.0,2.0,48,0.00,,,0.00,Wunderground v.1.15,2013-07-20 17:49:00,
2013-07-20 13:50:00,94.0,71.9,29.77,SSW,207,0.0,3.0,49,0.00,,,0.00,Wunderground v.1.15,2013-07-20 17:50:00,
2013-07-20 13:53:00,94.5,71.8,29.77,WNW,286,0.0,3.0,48,0.00,,,0.00,Wunderground v.1.15,2013-07-20 17:53:00,
2013-07-20 13:54:00,94.7,72.6,29.77,South,175,0.0,3.0,49,0.00,,,0.00,Wunderground v.1.15,2013-07-20 17:54:00,
2013-07-20 13:56:00,94.9,71.5,29.77,West,270,3.0,6.0,47,0.00,,,0.00,Wunderground v.1.15,2013-07-20 17:56:00,
2013-07-20 13:58:00,94.9,70.9,29.77,WNW,286,2.0,3.0,46,0.00,,,0.00,Wunderground v.1.15,2013-07-20 17:58:00,
2013-07-20 13:59:00,94.9,71.5,29.77,WNW,286,0.0,3.0,47,0.00,,,0.00,Wunderground v.1.15,2013-07-20 17:59:00,
2013-07-20 14:00:00,95.1,71.1,29.77,ESE,109,2.0,3.0,46,0.00,,,0.00,Wunderground v.1.15,2013-07-20 18:00:00,
2013-07-20 14:02:00,95.1,71.7,29.77,ENE,67,0.0,5.0,47,0.00,,,0.00,Wunderground v.1.15,2013-07-20 18:02:00,
2013-07-20 14:04:00,95.1,71.1,29.76,WSW,250,5.0,9.0,46,0.00,,,0.00,Wunderground v.1.15,2013-07-20 18:04:00,
2013-07-20 14:05:00,95.1,71.1,29.76,East,83,1.0,9.0,46,0.00,,,0.00,Wunderground v.1.15,2013-07-20 18:05:00,
2013-07-20 14:07:00,95.1,70.4,29.76,SW,229,4.0,9.0,45,0.00,,,0.00,Wunderground v.1.15,2013-07-20 18:07:00,
2013-07-20 14:09:00,95.1,71.1,29.76,WNW,299,0.0,5.0,46,0.00,,,0.00,Wunderground v.1.15,2013-07-20 18:09:00,
2013-07-20 14:10:00,95.1,71.1,29.76,WNW,286,3.0,5.0,46,0.00,,,0.00,Wunderground v.1.15,2013-07-20 18:10:00,
2013-07-20 14:11:00,95.1,70.4,29.76,NW,319,1.0,5.0,45,0.00,,,0.00,Wunderground v.1.15,2013-07-20 18:11:00,
2013-07-20 14:12:00,95.4,71.3,29.76,NNW,328,12.0,17.0,46,0.00,,,0.00,Wunderground v.1.15,2013-07-20 18:12:00,
2013-07-20 14:15:00,95.1,70.4,29.76,SW,215,1.0,17.0,45,0.00,,,0.00,Wunderground v.1.15,2013-07-20 18:15:00,
2013-07-20 14:16:00,95.4,70.7,29.76,SW,236,4.0,17.0,45,0.00,,,0.00,Wunderground v.1.15,2013-07-20 18:16:00,
2013-07-20 14:17:00,95.4,70.7,29.76,WNW,291,1.0,17.0,45,0.00,,,0.00,Wunderground v.1.15,2013-07-20 18:17:00,
2013-07-20 14:20:00,95.1,69.1,29.76,WSW,245,3.0,10.0,43,0.00,,,0.00,Wunderground v.1.15,2013-07-20 18:20:00,
2013-07-20 14:21:00,95.1,69.8,29.76,ENE,70,0.0,10.0,44,0.00,,,0.00,Wunderground v.1.15,2013-07-20 18:21:00,
2013-07-20 14:23:00,95.4,70.7,29.76,SSW,198,4.0,10.0,45,0.00,,,0.00,Wunderground v.1.15,2013-07-20 18:23:00,
2013-07-20 14:25:00,95.1,69.8,29.76,WSW,242,4.0,10.0,44,0.00,,,0.00,Wunderground v.1.15,2013-07-20 18:25:00,
2013-07-20 14:26:00,95.1,70.4,29.76,WSW,243,1.0,10.0,45,0.00,,,0.00,Wunderground v.1.15,2013-07-20 18:26:00,
2013-07-20 14:27:00,95.4,70.7,29.76,South,174,3.0,10.0,45,0.00,,,0.00,Wunderground v.1.15,2013-07-20 18:27:00,
2013-07-20 14:29:00,95.4,70.0,29.76,NW,307,2.0,4.0,44,0.00,,,0.00,Wunderground v.1.15,2013-07-20 18:29:00,
2013-07-20 14:31:00,95.4,69.4,29.75,SW,232,4.0,6.0,43,0.00,,,0.00,Wunderground v.1.15,2013-07-20 18:31:00,
2013-07-20 14:32:00,95.4,69.4,29.76,West,272,3.0,6.0,43,0.00,,,0.00,Wunderground v.1.15,2013-07-20 18:32:00,
2013-07-20 14:36:00,95.6,68.1,29.76,NW,306,6.0,7.0,41,0.00,,,0.00,Wunderground v.1.15,2013-07-20 18:36:00,
2013-07-20 14:37:00,95.4,67.2,29.75,South,176,1.0,7.0,40,0.00,,,0.00,Wunderground v.1.15,2013-07-20 18:37:00,
2013-07-20 14:38:00,95.6,67.4,29.75,North,355,0.0,4.0,40,0.00,,,0.00,Wunderground v.1.15,2013-07-20 18:38:00,
2013-07-20 14:42:00,95.9,68.4,29.75,NW,315,2.0,8.0,41,0.00,,,0.00,Wunderground v.1.15,2013-07-20 18:42:00,
2013-07-20 14:43:00,95.9,68.4,29.75,NW,307,0.0,8.0,41,0.00,,,0.00,Wunderground v.1.15,2013-07-20 18:43:00,
2013-07-20 14:48:00,96.1,69.3,29.75,SW,220,3.0,3.0,42,0.00,,,0.00,Wunderground v.1.15,2013-07-20 18:48:00,
2013-07-20 14:49:00,96.1,68.6,29.75,SW,235,5.0,5.0,41,0.00,,,0.00,Wunderground v.1.15,2013-07-20 18:49:00,
2013-07-20 14:53:00,96.3,68.8,29.75,SW,226,5.0,6.0,41,0.00,,,0.00,Wunderground v.1.15,2013-07-20 18:53:00,
2013-07-20 14:54:00,96.3,68.1,29.75,SW,222,4.0,7.0,40,0.00,,,0.00,Wunderground v.1.15,2013-07-20 18:54:00,
2013-07-20 14:55:00,96.3,68.1,29.75,SSW,209,1.0,7.0,40,0.00,,,0.00,Wunderground v.1.15,2013-07-20 18:55:00,
2013-07-20 15:00:00,96.1,67.9,29.74,SW,216,0.0,4.0,40,0.00,,,0.00,Wunderground v.1.15,2013-07-20 19:00:00,
2013-07-20 15:05:00,96.6,68.3,29.74,North,360,0.0,5.0,40,0.00,,,0.00,Wunderground v.1.15,2013-07-20 19:05:00,
2013-07-20 15:06:00,96.6,69.7,29.74,NNE,25,1.0,5.0,42,0.00,,,0.00,Wunderground v.1.15,2013-07-20 19:06:00,
2013-07-20 15:10:00,96.6,68.3,29.74,WSW,249,0.0,4.0,40,0.00,,,0.00,Wunderground v.1.15,2013-07-20 19:10:00,
2013-07-20 15:11:00,96.6,69.0,29.74,South,190,6.0,6.0,41,0.00,,,0.00,Wunderground v.1.15,2013-07-20 19:11:00,
2013-07-20 15:12:00,96.6,69.0,29.74,SW,233,6.0,6.0,41,0.00,,,0.00,Wunderground v.1.15,2013-07-20 19:12:00,
2013-07-20 15:16:00,96.1,68.6,29.74,WNW,301,5.0,11.0,41,0.00,,,0.00,Wunderground v.1.15,2013-07-20 19:16:00,
2013-07-20 15:17:00,96.1,68.6,29.75,SSE,168,1.0,11.0,41,0.00,,,0.00,Wunderground v.1.15,2013-07-20 19:17:00,
2013-07-20 15:22:00,95.9,68.4,29.75,SW,230,5.0,9.0,41,0.00,,,0.00,Wunderground v.1.15,2013-07-20 19:22:00,
2013-07-20 15:27:00,95.6,68.1,29.75,SE,139,2.0,9.0,41,0.00,,,0.00,Wunderground v.1.15,2013-07-20 19:27:00,
2013-07-20 15:31:00,95.1,69.1,29.74,SSW,209,0.0,13.0,43,0.00,,,0.00,Wunderground v.1.15,2013-07-20 19:31:00,
2013-07-20 15:32:00,95.1,69.1,29.74,SSW,204,1.0,13.0,43,0.00,,,0.00,Wunderground v.1.15,2013-07-20 19:32:00,
2013-07-20 15:33:00,95.1,69.1,29.74,SSW,204,0.0,13.0,43,0.00,,,0.00,Wunderground v.1.15,2013-07-20 19:33:00,
2013-07-20 15:36:00,95.1,69.1,29.74,WSW,244,5.0,13.0,43,0.00,,,0.00,Wunderground v.1.15,2013-07-20 19:36:00,
2013-07-20 15:38:00,95.1,69.1,29.74,SW,227,6.0,6.0,43,0.00,,,0.00,Wunderground v.1.15,2013-07-20 19:38:00,
2013-07-20 15:39:00,95.1,69.1,29.74,SW,232,2.0,6.0,43,0.00,,,0.00,Wunderground v.1.15,2013-07-20 19:39:00,
2013-07-20 15:43:00,95.4,69.4,29.74,NW,307,5.0,6.0,43,0.00,,,0.00,Wunderground v.1.15,2013-07-20 19:43:00,
2013-07-20 15:45:00,95.6,68.8,29.74,WNW,303,3.0,6.0,42,0.00,,,0.00,Wunderground v.1.15,2013-07-20 19:45:00,
2013-07-20 15:46:00,95.6,68.8,29.74,WNW,286,3.0,6.0,42,0.00,,,0.00,Wunderground v.1.15,2013-07-20 19:46:00,
2013-07-20 15:48:00,95.4,68.7,29.73,WNW,300,10.0,10.0,42,0.00,,,0.00,Wunderground v.1.15,2013-07-20 19:48:00,
2013-07-20 15:49:00,95.4,68.7,29.74,SW,217,8.0,14.0,42,0.00,,,0.00,Wunderground v.1.15,2013-07-20 19:49:00,
2013-07-20 15:51:00,95.1,69.1,29.74,NNW,328,5.0,14.0,43,0.00,,,0.00,Wunderground v.1.15,2013-07-20 19:51:00,
2013-07-20 15:54:00,94.9,68.9,29.74,SW,224,4.0,14.0,43,0.00,,,0.00,Wunderground v.1.15,2013-07-20 19:54:00,
2013-07-20 15:56:00,94.9,68.9,29.74,WNW,295,7.0,14.0,43,0.00,,,0.00,Wunderground v.1.15,2013-07-20 19:56:00,
2013-07-20 15:57:00,94.9,68.2,29.74,NW,304,5.0,14.0,42,0.00,,,0.00,Wunderground v.1.15,2013-07-20 19:57:00,
2013-07-20 16:00:00,94.7,68.7,29.74,SE,142,1.0,5.0,43,0.00,,,0.00,Wunderground v.1.15,2013-07-20 20:00:00,
2013-07-20 16:01:00,94.7,68.7,29.74,North,5,2.0,5.0,43,0.00,,,0.00,Wunderground v.1.15,2013-07-20 20:01:00,
2013-07-20 16:02:00,94.7,69.4,29.74,NNE,12,0.0,6.0,44,0.00,,,0.00,Wunderground v.1.15,2013-07-20 20:02:00,
2013-07-20 16:03:00,94.7,68.7,29.74,SW,225,5.0,6.0,43,0.00,,,0.00,Wunderground v.1.15,2013-07-20 20:03:00,
2013-07-20 16:05:00,94.7,69.4,29.74,South,172,3.0,16.0,44,0.00,,,0.00,Wunderground v.1.15,2013-07-20 20:05:00,
2013-07-20 16:06:00,94.7,68.7,29.74,WNW,282,0.0,16.0,43,0.00,,,0.00,Wunderground v.1.15,2013-07-20 20:06:00,
2013-07-20 16:07:00,94.7,69.4,29.74,WSW,255,2.0,16.0,44,0.00,,,0.00,Wunderground v.1.15,2013-07-20 20:07:00,
2013-07-20 16:09:00,94.7,69.4,29.74,SW,217,2.0,4.0,44,0.00,,,0.00,Wunderground v.1.15,2013-07-20 20:09:00,
2013-07-20 16:12:00,94.5,69.9,29.74,SSW,209,4.0,7.0,45,0.00,,,0.00,Wunderground v.1.15,2013-07-20 20:12:00,
2013-07-20 16:13:00,94.5,69.2,29.74,WSW,249,5.0,7.0,44,0.00,,,0.00,Wunderground v.1.15,2013-07-20 20:13:00,
2013-07-20 16:14:00,94.3,69.0,29.74,WNW,294,3.0,7.0,44,0.00,,,0.00,Wunderground v.1.15,2013-07-20 20:14:00,
2013-07-20 16:17:00,94.3,69.0,29.74,NW,323,5.0,11.0,44,0.00,,,0.00,Wunderground v.1.15,2013-07-20 20:17:00,
2013-07-20 16:18:00,94.5,69.2,29.74,WNW,299,2.0,3.0,44,0.00,,,0.00,Wunderground v.1.15,2013-07-20 20:18:00,
2013-07-20 16:20:00,94.5,69.2,29.74,WSW,237,3.0,13.0,44,0.00,,,0.00,Wunderground v.1.15,2013-07-20 20:20:00,
2013-07-20 16:22:00,94.5,69.2,29.75,SSW,201,3.0,13.0,44,0.00,,,0.00,Wunderground v.1.15,2013-07-20 20:22:00,
2013-07-20 16:23:00,94.5,69.2,29.75,SSW,202,2.0,13.0,44,0.00,,,0.00,Wunderground v.1.15,2013-07-20 20:23:00,
2013-07-20 16:24:00,94.3,69.7,29.75,SSW,200,3.0,13.0,45,0.00,,,0.00,Wunderground v.1.15,2013-07-20 20:24:00,
2013-07-20 16:27:00,94.0,68.8,29.75,ESE,123,2.0,13.0,44,0.00,,,0.00,Wunderground v.1.15,2013-07-20 20:27:00,
2013-07-20 16:28:00,93.8,69.2,29.75,SW,233,2.0,5.0,45,0.00,,,0.00,Wunderground v.1.15,2013-07-20 20:28:00,
2013-07-20 16:29:00,93.8,69.9,29.75,WNW,283,4.0,12.0,46,0.00,,,0.00,Wunderground v.1.15,2013-07-20 20:29:00,
2013-07-20 16:33:00,93.8,69.2,29.75,NW,309,10.0,12.0,45,0.00,,,0.00,Wunderground v.1.15,2013-07-20 20:33:00,
2013-07-20 16:34:00,94.0,69.4,29.75,West,265,5.0,12.0,45,0.00,,,0.00,Wunderground v.1.15,2013-07-20 20:34:00,
2013-07-20 16:35:00,94.0,69.4,29.75,NW,319,5.0,12.0,45,0.00,,,0.00,Wunderground v.1.15,2013-07-20 20:35:00,
2013-07-20 16:39:00,94.3,70.3,29.74,WSW,253,0.0,4.0,46,0.00,,,0.00,Wunderground v.1.15,2013-07-20 20:39:00,
2013-07-20 16:40:00,94.5,69.9,29.75,SW,216,6.0,7.0,45,0.00,,,0.00,Wunderground v.1.15,2013-07-20 20:40:00,
2013-07-20 16:44:00,94.5,69.9,29.74,West,275,5.0,11.0,45,0.00,,,0.00,Wunderground v.1.15,2013-07-20 20:44:00,
2013-07-20 16:45:00,94.5,69.2,29.74,West,267,2.0,13.0,44,0.00,,,0.00,Wunderground v.1.15,2013-07-20 20:45:00,
2013-07-20 16:46:00,94.3,69.7,29.74,WNW,298,6.0,13.0,45,0.00,,,0.00,Wunderground v.1.15,2013-07-20 20:46:00,
2013-07-20 16:49:00,94.3,69.0,29.74,WSW,257,3.0,5.0,44,0.00,,,0.00,Wunderground v.1.15,2013-07-20 20:49:00,
2013-07-20 16:50:00,94.3,69.0,29.74,WSW,258,3.0,5.0,44,0.00,,,0.00,Wunderground v.1.15,2013-07-20 20:50:00,
2013-07-20 16:51:00,94.3,69.0,29.74,SW,220,3.0,7.0,44,0.00,,,0.00,Wunderground v.1.15,2013-07-20 20:51:00,
2013-07-20 16:55:00,93.8,69.2,29.74,SSW,210,2.0,12.0,45,0.00,,,0.00,Wunderground v.1.15,2013-07-20 20:55:00,
2013-07-20 16:57:00,93.8,69.9,29.74,WNW,296,2.0,12.0,46,0.00,,,0.00,Wunderground v.1.15,2013-07-20 20:57:00,
2013-07-20 17:00:00,93.6,69.7,29.74,WNW,292,3.0,14.0,46,0.00,,,0.00,Wunderground v.1.15,2013-07-20 21:00:00,
2013-07-20 17:01:00,93.4,69.5,29.74,NW,313,4.0,14.0,46,0.00,,,0.00,Wunderground v.1.15,2013-07-20 21:01:00,
2013-07-20 17:02:00,93.4,70.2,29.75,SW,226,4.0,14.0,47,0.00,,,0.00,Wunderground v.1.15,2013-07-20 21:02:00,
2013-07-20 17:06:00,92.7,70.1,29.74,NW,313,3.0,14.0,48,0.00,,,0.00,Wunderground v.1.15,2013-07-20 21:06:00,
2013-07-20 17:08:00,92.5,70.6,29.75,NW,321,1.0,4.0,49,0.00,,,0.00,Wunderground v.1.15,2013-07-20 21:08:00,
2013-07-20 17:11:00,92.3,70.4,29.75,WNW,291,3.0,10.0,49,0.00,,,0.00,Wunderground v.1.15,2013-07-20 21:11:00,
2013-07-20 17:13:00,92.1,70.2,29.75,WNW,294,0.0,10.0,49,0.00,,,0.00,Wunderground v.1.15,2013-07-20 21:13:00,
2013-07-20 17:14:00,92.3,71.0,29.75,WNW,300,5.0,10.0,50,0.00,,,0.00,Wunderground v.1.15,2013-07-20 21:14:00,
2013-07-20 17:15:00,92.3,70.4,29.75,NW,313,5.0,10.0,49,0.00,,,0.00,Wunderground v.1.15,2013-07-20 21:15:00,
2013-07-20 17:16:00,92.3,71.0,29.75,West,269,3.0,10.0,50,0.00,,,0.00,Wunderground v.1.15,2013-07-20 21:16:00,
2013-07-20 17:19:00,92.3,71.0,29.75,NNW,329,4.0,6.0,50,0.00,,,0.00,Wunderground v.1.15,2013-07-20 21:19:00,
2013-07-20 17:20:00,92.3,71.0,29.75,WSW,242,4.0,6.0,50,0.00,,,0.00,Wunderground v.1.15,2013-07-20 21:20:00,
2013-07-20 17:22:00,92.3,71.0,29.75,WSW,246,5.0,6.0,50,0.00,,,0.00,Wunderground v.1.15,2013-07-20 21:22:00,
2013-07-20 17:24:00,92.1,71.4,29.74,NNW,348,0.0,6.0,51,0.00,,,0.00,Wunderground v.1.15,2013-07-20 21:24:00,
2013-07-20 17:26:00,92.1,71.4,29.74,NNW,331,1.0,6.0,51,0.00,,,0.00,Wunderground v.1.15,2013-07-20 21:26:00,
2013-07-20 17:27:00,91.8,71.1,29.75,West,273,2.0,7.0,51,0.00,,,0.00,Wunderground v.1.15,2013-07-20 21:27:00,
2013-07-20 17:29:00,91.6,71.5,29.75,SW,221,0.0,5.0,52,0.00,,,0.00,Wunderground v.1.15,2013-07-20 21:29:00,
2013-07-20 17:31:00,91.6,71.5,29.75,WNW,302,1.0,5.0,52,0.00,,,0.00,Wunderground v.1.15,2013-07-20 21:31:00,
2013-07-20 17:32:00,91.6,71.5,29.75,SW,235,5.0,5.0,52,0.00,,,0.00,Wunderground v.1.15,2013-07-20 21:32:00,
2013-07-20 17:34:00,91.8,71.1,29.75,West,263,0.0,6.0,51,0.00,,,0.00,Wunderground v.1.15,2013-07-20 21:34:00,
2013-07-20 17:37:00,91.8,71.7,29.75,NNE,30,2.0,6.0,52,0.00,,,0.00,Wunderground v.1.15,2013-07-20 21:37:00,
2013-07-20 17:39:00,91.8,71.7,29.75,NW,309,1.0,2.0,52,0.00,,,0.00,Wunderground v.1.15,2013-07-20 21:39:00,
2013-07-20 17:42:00,91.8,71.7,29.75,SE,128,4.0,9.0,52,0.00,,,0.00,Wunderground v.1.15,2013-07-20 21:42:00,
2013-07-20 17:43:00,91.6,71.5,29.74,West,261,8.0,9.0,52,0.00,,,0.00,Wunderground v.1.15,2013-07-20 21:43:00,
2013-07-20 17:44:00,91.6,72.0,29.75,SSE,159,0.0,9.0,53,0.00,,,0.00,Wunderground v.1.15,2013-07-20 21:44:00,
2013-07-20 17:48:00,91.4,72.4,29.75,SSW,211,1.0,3.0,54,0.00,,,0.00,Wunderground v.1.15,2013-07-20 21:48:00,
2013-07-20 17:49:00,91.4,72.4,29.75,WSW,240,0.0,4.0,54,0.00,,,0.00,Wunderground v.1.15,2013-07-20 21:49:00,
2013-07-20 17:52:00,91.2,72.2,29.75,SW,218,2.0,5.0,54,0.00,,,0.00,Wunderground v.1.15,2013-07-20 21:52:00,
2013-07-20 17:54:00,91.2,72.2,29.75,NW,324,0.0,6.0,54,0.00,,,0.00,Wunderground v.1.15,2013-07-20 21:54:00,
2013-07-20 17:55:00,91.2,72.2,29.75,NW,319,1.0,6.0,54,0.00,,,0.00,Wunderground v.1.15,2013-07-20 21:55:00,
2013-07-20 17:59:00,91.4,71.9,29.75,WSW,252,7.0,7.0,53,0.00,,,0.00,Wunderground v.1.15,2013-07-20 21:59:00,
2013-07-20 18:00:00,91.4,71.3,29.75,WSW,254,0.0,7.0,52,0.00,,,0.00,Wunderground v.1.15,2013-07-20 22:00:00,
2013-07-20 18:04:00,91.4,71.9,29.75,WSW,254,0.0,7.0,53,0.00,,,0.00,Wunderground v.1.15,2013-07-20 22:04:00,
2013-07-20 18:05:00,91.4,71.9,29.75,WSW,254,0.0,7.0,53,0.00,,,0.00,Wunderground v.1.15,2013-07-20 22:05:00,
2013-07-20 18:08:00,91.2,71.7,29.76,WSW,244,6.0,6.0,53,0.00,,,0.00,Wunderground v.1.15,2013-07-20 22:08:00,
2013-07-20 18:10:00,90.7,71.2,29.76,WSW,252,1.0,6.0,53,0.00,,,0.00,Wunderground v.1.15,2013-07-20 22:10:00,
2013-07-20 18:13:00,89.7,71.4,29.76,SW,223,0.0,6.0,55,0.00,,,0.00,Wunderground v.1.15,2013-07-20 22:13:00,
2013-07-20 18:15:00,89.5,71.2,29.76,SW,226,0.0,6.0,55,0.00,,,0.00,Wunderground v.1.15,2013-07-20 22:15:00,
2013-07-20 18:16:00,89.3,71.5,29.76,SW,224,2.0,6.0,56,0.00,,,0.00,Wunderground v.1.15,2013-07-20 22:16:00,
2013-07-20 18:17:00,89.0,71.3,29.76,SW,224,0.0,6.0,56,0.00,,,0.00,Wunderground v.1.15,2013-07-20 22:17:00,
2013-07-20 18:19:00,88.8,71.1,29.75,SW,224,0.0,1.0,56,0.00,,,0.00,Wunderground v.1.15,2013-07-20 22:19:00,
2013-07-20 18:21:00,88.6,71.4,29.75,SW,223,0.0,1.0,57,0.00,,,0.00,Wunderground v.1.15,2013-07-20 22:21:00,
2013-07-20 18:22:00,88.6,71.9,29.76,SW,223,1.0,1.0,58,0.00,,,0.00,Wunderground v.1.15,2013-07-20 22:22:00,
2013-07-20 18:23:00,88.6,71.9,29.76,SW,223,0.0,1.0,58,0.00,,,0.00,Wunderground v.1.15,2013-07-20 22:23:00,
2013-07-20 18:25:00,88.4,71.7,29.76,SW,220,1.0,3.0,58,0.00,,,0.00,Wunderground v.1.15,2013-07-20 22:25:00,
2013-07-20 18:27:00,88.4,71.7,29.76,WSW,258,0.0,3.0,58,0.00,,,0.00,Wunderground v.1.15,2013-07-20 22:27:00,
2013-07-20 18:28:00,88.4,71.7,29.76,West,259,0.0,0.0,58,0.00,,,0.00,Wunderground v.1.15,2013-07-20 22:28:00,
2013-07-20 18:30:00,88.4,72.2,29.76,West,259,0.0,1.0,59,0.00,,,0.00,Wunderground v.1.15,2013-07-20 22:30:00,
2013-07-20 18:33:00,88.6,71.4,29.76,WNW,300,1.0,3.0,57,0.00,,,0.00,Wunderground v.1.15,2013-07-20 22:33:00,
2013-07-20 18:34:00,88.8,71.1,29.76,WNW,300,2.0,3.0,56,0.00,,,0.00,Wunderground v.1.15,2013-07-20 22:34:00,
2013-07-20 18:35:00,88.8,71.1,29.76,WNW,300,0.0,3.0,56,0.00,,,0.00,Wunderground v.1.15,2013-07-20 22:35:00,
2013-07-20 18:39:00,89.3,72.1,29.76,NW,314,1.0,2.0,57,0.00,,,0.00,Wunderground v.1.15,2013-07-20 22:39:00,
2013-07-20 18:41:00,89.3,70.5,29.76,SW,227,0.0,7.0,54,0.00,,,0.00,Wunderground v.1.15,2013-07-20 22:41:00,
2013-07-20 18:44:00,89.5,70.7,29.76,SW,226,0.0,7.0,54,0.00,,,0.00,Wunderground v.1.15,2013-07-20 22:44:00,
2013-07-20 18:45:00,89.5,70.7,29.76,SW,226,0.0,7.0,54,0.00,,,0.00,Wunderground v.1.15,2013-07-20 22:45:00,
2013-07-20 18:47:00,89.7,70.8,29.76,West,267,0.0,7.0,54,0.00,,,0.00,Wunderground v.1.15,2013-07-20 22:47:00,
2013-07-20 18:49:00,89.7,70.8,29.76,WSW,240,0.0,3.0,54,0.00,,,0.00,Wunderground v.1.15,2013-07-20 22:49:00,
2013-07-20 18:50:00,89.9,71.0,29.76,SW,234,0.0,5.0,54,0.00,,,0.00,Wunderground v.1.15,2013-07-20 22:50:00,
2013-07-20 18:52:00,89.9,71.0,29.76,NW,323,6.0,6.0,54,0.00,,,0.00,Wunderground v.1.15,2013-07-20 22:52:00,
2013-07-20 18:53:00,89.9,70.5,29.76,NW,324,5.0,6.0,53,0.00,,,0.00,Wunderground v.1.15,2013-07-20 22:53:00,
2013-07-20 18:54:00,89.9,69.9,29.76,NW,317,4.0,6.0,52,0.00,,,0.00,Wunderground v.1.15,2013-07-20 22:54:00,
2013-07-20 18:57:00,89.9,69.9,29.76,SW,234,0.0,6.0,52,0.00,,,0.00,Wunderground v.1.15,2013-07-20 22:57:00,
2013-07-20 18:58:00,89.9,69.9,29.76,SW,234,1.0,2.0,52,0.00,,,0.00,Wunderground v.1.15,2013-07-20 22:58:00,
2013-07-20 18:59:00,90.1,70.1,29.76,WSW,241,0.0,2.0,52,0.00,,,0.00,Wunderground v.1.15,2013-07-20 22:59:00,
2013-07-20 19:04:00,90.1,70.1,29.76,West,279,3.0,4.0,52,0.00,,,0.00,Wunderground v.1.15,2013-07-20 23:04:00,
2013-07-20 19:05:00,90.1,70.7,29.76,NW,315,4.0,5.0,53,0.00,,,0.00,Wunderground v.1.15,2013-07-20 23:05:00,
2013-07-20 19:06:00,90.1,70.1,29.77,North,11,1.0,5.0,52,0.00,,,0.00,Wunderground v.1.15,2013-07-20 23:06:00,
2013-07-20 19:09:00,90.1,70.1,29.77,WSW,244,4.0,6.0,52,0.00,,,0.00,Wunderground v.1.15,2013-07-20 23:09:00,
2013-07-20 19:10:00,90.1,70.1,29.77,SW,232,4.0,7.0,52,0.00,,,0.00,Wunderground v.1.15,2013-07-20 23:10:00,
2013-07-20 19:14:00,89.9,70.5,29.77,WNW,296,0.0,7.0,53,0.00,,,0.00,Wunderground v.1.15,2013-07-20 23:14:00,
2013-07-20 19:15:00,89.9,70.5,29.77,WNW,294,2.0,7.0,53,0.00,,,0.00,Wunderground v.1.15,2013-07-20 23:15:00,
2013-07-20 19:19:00,89.7,70.8,29.77,NNW,333,0.0,2.0,54,0.00,,,0.00,Wunderground v.1.15,2013-07-20 23:19:00,
2013-07-20 19:20:00,89.7,70.8,29.77,NNW,333,0.0,2.0,54,0.00,,,0.00,Wunderground v.1.15,2013-07-20 23:20:00,
2013-07-20 19:22:00,89.7,70.8,29.77,NNW,333,0.0,2.0,54,0.00,,,0.00,Wunderground v.1.15,2013-07-20 23:22:00,
2013-07-20 19:24:00,89.5,70.7,29.76,SW,223,0.0,2.0,54,0.00,,,0.00,Wunderground v.1.15,2013-07-20 23:24:00,
2013-07-20 19:25:00,89.5,70.7,29.77,SW,217,4.0,4.0,54,0.00,,,0.00,Wunderground v.1.15,2013-07-20 23:25:00,
2013-07-20 19:26:00,89.5,70.7,29.77,SW,217,0.0,4.0,54,0.00,,,0.00,Wunderground v.1.15,2013-07-20 23:26:00,
2013-07-20 19:28:00,89.5,70.7,29.77,SSW,211,0.0,0.0,54,0.00,,,0.00,Wunderground v.1.15,2013-07-20 23:28:00,
2013-07-20 19:29:00,89.5,70.7,29.77,SSW,211,0.0,1.0,54,0.00,,,0.00,Wunderground v.1.15,2013-07-20 23:29:00,
2013-07-20 19:30:00,89.5,70.7,29.77,SSW,211,0.0,1.0,54,0.00,,,0.00,Wunderground v.1.15,2013-07-20 23:30:00,
2013-07-20 19:32:00,89.5,70.7,29.77,SSW,211,0.0,2.0,54,0.00,,,0.00,Wunderground v.1.15,2013-07-20 23:32:00,
2013-07-20 19:33:00,89.5,70.7,29.77,WSW,251,0.0,5.0,54,0.00,,,0.00,Wunderground v.1.15,2013-07-20 23:33:00,
2013-07-20 19:35:00,89.3,70.5,29.77,SSE,152,1.0,6.0,54,0.00,,,0.00,Wunderground v.1.15,2013-07-20 23:35:00,
2013-07-20 19:36:00,89.3,70.5,29.77,SSE,153,1.0,6.0,54,0.00,,,0.00,Wunderground v.1.15,2013-07-20 23:36:00,
2013-07-20 19:37:00,89.0,70.2,29.77,SSE,153,0.0,6.0,54,0.00,,,0.00,Wunderground v.1.15,2013-07-20 23:37:00,
2013-07-20 19:39:00,89.0,70.7,29.77,South,180,1.0,2.0,55,0.00,,,0.00,Wunderground v.1.15,2013-07-20 23:39:00,
2013-07-20 19:41:00,88.8,70.5,29.77,SSW,211,1.0,5.0,55,0.00,,,0.00,Wunderground v.1.15,2013-07-20 23:41:00,
2013-07-20 19:43:00,88.8,70.5,29.78,SW,231,0.0,6.0,55,0.00,,,0.00,Wunderground v.1.15,2013-07-20 23:43:00,
2013-07-20 19:44:00,88.8,71.1,29.78,SW,231,0.0,6.0,56,0.00,,,0.00,Wunderground v.1.15,2013-07-20 23:44:00,
2013-07-20 19:47:00,88.8,71.1,29.78,SW,232,2.0,6.0,56,0.00,,,0.00,Wunderground v.1.15,2013-07-20 23:47:00,
2013-07-20 19:48:00,88.6,70.9,29.78,SW,219,0.0,4.0,56,0.00,,,0.00,Wunderground v.1.15,2013-07-20 23:48:00,
2013-07-20 19:50:00,88.6,70.9,29.78,WSW,242,0.0,6.0,56,0.00,,,0.00,Wunderground v.1.15,2013-07-20 23:50:00,
2013-07-20 19:52:00,88.4,70.7,29.79,WSW,242,0.0,6.0,56,0.00,,,0.00,Wunderground v.1.15,2013-07-20 23:52:00,
2013-07-20 19:54:00,88.4,70.7,29.79,WNW,286,1.0,6.0,56,0.00,,,0.00,Wunderground v.1.15,2013-07-20 23:54:00,
2013-07-20 19:55:00,88.4,71.2,29.79,WNW,286,0.0,6.0,57,0.00,,,0.00,Wunderground v.1.15,2013-07-20 23:55:00,
2013-07-20 19:57:00,88.2,71.0,29.79,WNW,286,0.0,6.0,57,0.00,,,0.00,Wunderground v.1.15,2013-07-20 23:57:00,
2013-07-20 19:58:00,88.2,71.0,29.79,WNW,286,0.0,1.0,57,0.00,,,0.00,Wunderground v.1.15,2013-07-20 23:58:00,
2013-07-20 20:01:00,88.2,71.0,29.80,WSW,258,3.0,3.0,57,0.00,,,0.00,Wunderground v.1.15,2013-07-21 00:01:00,
2013-07-20 20:04:00,88.0,71.4,29.80,West,259,0.0,3.0,58,0.00,,,0.00,Wunderground v.1.15,2013-07-21 00:04:00,
2013-07-20 20:06:00,88.0,71.4,29.80,WSW,258,0.0,3.0,58,0.00,,,0.00,Wunderground v.1.15,2013-07-21 00:06:00,
2013-07-20 20:09:00,87.8,71.2,29.80,WSW,258,0.0,0.0,58,0.00,,,0.00,Wunderground v.1.15,2013-07-21 00:09:00,
2013-07-20 20:12:00,87.8,71.2,29.80,West,259,1.0,1.0,58,0.00,,,0.00,Wunderground v.1.15,2013-07-21 00:12:00,
2013-07-20 20:13:00,87.6,71.5,29.80,West,259,0.0,1.0,59,0.00,,,0.00,Wunderground v.1.15,2013-07-21 00:13:00,
2013-07-20 20:15:00,87.6,71.5,29.80,West,259,0.0,1.0,59,0.00,,,0.00,Wunderground v.1.15,2013-07-21 00:15:00,
2013-07-20 20:17:00,87.4,71.3,29.80,West,259,0.0,1.0,59,0.00,,,0.00,Wunderground v.1.15,2013-07-21 00:17:00,
2013-07-20 20:18:00,87.4,71.3,29.80,SSW,195,0.0,0.0,59,0.00,,,0.00,Wunderground v.1.15,2013-07-21 00:18:00,
2013-07-20 20:21:00,87.4,71.3,29.80,SSW,195,0.0,1.0,59,0.00,,,0.00,Wunderground v.1.15,2013-07-21 00:21:00,
2013-07-20 20:22:00,87.4,71.3,29.80,SW,236,0.0,3.0,59,0.00,,,0.00,Wunderground v.1.15,2013-07-21 00:22:00,
2013-07-20 20:24:00,87.2,71.6,29.80,SW,236,0.0,3.0,60,0.00,,,0.00,Wunderground v.1.15,2013-07-21 00:24:00,
2013-07-20 20:26:00,87.2,71.6,29.80,SW,236,0.0,3.0,60,0.00,,,0.00,Wunderground v.1.15,2013-07-21 00:26:00,
2013-07-20 20:27:00,87.2,71.6,29.81,SW,236,0.0,3.0,60,0.00,,,0.00,Wunderground v.1.15,2013-07-21 00:27:00,
2013-07-20 20:28:00,87.0,71.4,29.81,SW,236,0.0,0.0,60,0.00,,,0.00,Wunderground v.1.15,2013-07-21 00:28:00,
2013-07-20 20:29:00,87.0,71.4,29.81,SW,236,0.0,0.0,60,0.00,,,0.00,Wunderground v.1.15,2013-07-21 00:29:00,
2013-07-20 20:34:00,86.7,71.6,29.81,SW,236,0.0,0.0,61,0.00,,,0.00,Wunderground v.1.15,2013-07-21 00:34:00,
2013-07-20 20:35:00,86.7,71.6,29.81,SW,236,0.0,0.0,61,0.00,,,0.00,Wunderground v.1.15,2013-07-21 00:35:00,
2013-07-20 20:38:00,86.5,71.5,29.81,SW,236,0.0,0.0,61,0.00,,,0.00,Wunderground v.1.15,2013-07-21 00:38:00,
2013-07-20 20:39:00,86.5,71.5,29.81,SW,225,0.0,2.0,61,0.00,,,0.00,Wunderground v.1.15,2013-07-21 00:39:00,
2013-07-20 20:41:00,86.5,71.9,29.81,SW,225,0.0,2.0,62,0.00,,,0.00,Wunderground v.1.15,2013-07-21 00:41:00,
2013-07-20 20:43:00,86.3,71.7,29.81,SW,225,0.0,2.0,62,0.00,,,0.00,Wunderground v.1.15,2013-07-21 00:43:00,
2013-07-20 20:45:00,86.3,71.7,29.81,SW,225,0.0,2.0,62,0.00,,,0.00,Wunderground v.1.15,2013-07-21 00:45:00,
2013-07-20 20:47:00,86.3,71.7,29.81,SW,225,0.0,2.0,62,0.00,,,0.00,Wunderground v.1.15,2013-07-21 00:47:00,
2013-07-20 20:50:00,86.1,71.6,29.81,SW,225,0.0,0.0,62,0.00,,,0.00,Wunderground v.1.15,2013-07-21 00:50:00,
2013-07-20 20:54:00,86.1,72.0,29.81,SW,225,0.0,0.0,63,0.00,,,0.00,Wunderground v.1.15,2013-07-21 00:54:00,
2013-07-20 20:55:00,85.9,71.8,29.81,SW,225,0.0,0.0,63,0.00,,,0.00,Wunderground v.1.15,2013-07-21 00:55:00,
2013-07-20 20:56:00,85.9,71.8,29.81,SW,225,0.0,0.0,63,0.00,,,0.00,Wunderground v.1.15,2013-07-21 00:56:00,
2013-07-20 21:00:00,85.9,71.8,29.81,SW,225,0.0,0.0,63,0.00,,,0.00,Wunderground v.1.15,2013-07-21 01:00:00,
2013-07-20 21:01:00,85.9,71.8,29.81,SW,225,0.0,0.0,63,0.00,,,0.00,Wunderground v.1.15,2013-07-21 01:01:00,
2013-07-20 21:04:00,85.7,72.1,29.81,SW,225,0.0,0.0,64,0.00,,,0.00,Wunderground v.1.15,2013-07-21 01:04:00,
2013-07-20 21:05:00,85.7,72.1,29.82,SW,225,0.0,0.0,64,0.00,,,0.00,Wunderground v.1.15,2013-07-21 01:05:00,
2013-07-20 21:06:00,85.7,72.1,29.82,SW,225,0.0,0.0,64,0.00,,,0.00,Wunderground v.1.15,2013-07-21 01:06:00,
2013-07-20 21:07:00,85.7,72.1,29.81,SW,225,0.0,0.0,64,0.00,,,0.00,Wunderground v.1.15,2013-07-21 01:07:00,
2013-07-20 21:10:00,85.5,71.9,29.81,SW,225,0.0,2.0,64,0.00,,,0.00,Wunderground v.1.15,2013-07-21 01:10:00,
2013-07-20 21:11:00,85.5,71.9,29.82,SW,225,0.0,2.0,64,0.00,,,0.00,Wunderground v.1.15,2013-07-21 01:11:00,
2013-07-20 21:13:00,85.5,71.9,29.81,SW,225,0.0,2.0,64,0.00,,,0.00,Wunderground v.1.15,2013-07-21 01:13:00,
2013-07-20 21:14:00,85.5,71.9,29.82,SW,225,0.0,2.0,64,0.00,,,0.00,Wunderground v.1.15,2013-07-21 01:14:00,
2013-07-20 21:16:00,85.5,71.9,29.82,SW,225,0.0,2.0,64,0.00,,,0.00,Wunderground v.1.15,2013-07-21 01:16:00,
2013-07-20 21:17:00,85.5,71.9,29.82,SW,225,0.0,2.0,64,0.00,,,0.00,Wunderground v.1.15,2013-07-21 01:17:00,
2013-07-20 21:19:00,85.3,71.7,29.82,SW,225,0.0,0.0,64,0.00,,,0.00,Wunderground v.1.15,2013-07-21 01:19:00,
2013-07-20 21:21:00,85.3,71.7,29.82,SW,225,0.0,0.0,64,0.00,,,0.00,Wunderground v.1.15,2013-07-21 01:21:00,
2013-07-20 21:23:00,85.3,72.2,29.82,SW,225,0.0,0.0,65,0.00,,,0.00,Wunderground v.1.15,2013-07-21 01:23:00,
2013-07-20 21:25:00,85.1,72.0,29.82,SW,225,0.0,0.0,65,0.00,,,0.00,Wunderground v.1.15,2013-07-21 01:25:00,
2013-07-20 21:27:00,85.1,72.0,29.82,SW,225,0.0,0.0,65,0.00,,,0.00,Wunderground v.1.15,2013-07-21 01:27:00,
2013-07-20 21:29:00,85.1,72.0,29.82,SW,225,0.0,0.0,65,0.00,,,0.00,Wunderground v.1.15,2013-07-21 01:29:00,
2013-07-20 21:30:00,85.1,72.0,29.82,SW,225,0.0,0.0,65,0.00,,,0.00,Wunderground v.1.15,2013-07-21 01:30:00,
2013-07-20 21:31:00,84.9,71.8,29.82,SW,225,0.0,0.0,65,0.00,,,0.00,Wunderground v.1.15,2013-07-21 01:31:00,
2013-07-20 21:32:00,84.9,72.3,29.82,SW,225,0.0,0.0,66,0.00,,,0.00,Wunderground v.1.15,2013-07-21 01:32:00,
2013-07-20 21:34:00,84.9,72.3,29.82,SW,225,0.0,0.0,66,0.00,,,0.00,Wunderground v.1.15,2013-07-21 01:34:00,
2013-07-20 21:36:00,84.9,72.3,29.82,SW,225,0.0,0.0,66,0.00,,,0.00,Wunderground v.1.15,2013-07-21 01:36:00,
2013-07-20 21:38:00,84.7,72.1,29.82,SW,225,0.0,0.0,66,0.00,,,0.00,Wunderground v.1.15,2013-07-21 01:38:00,
2013-07-20 21:39:00,84.7,72.1,29.82,SW,225,0.0,0.0,66,0.00,,,0.00,Wunderground v.1.15,2013-07-21 01:39:00,
2013-07-20 21:41:00,84.7,72.1,29.82,SW,225,0.0,0.0,66,0.00,,,0.00,Wunderground v.1.15,2013-07-21 01:41:00,
2013-07-20 21:42:00,84.7,72.1,29.82,SW,225,0.0,0.0,66,0.00,,,0.00,Wunderground v.1.15,2013-07-21 01:42:00,
2013-07-20 21:43:00,84.7,72.1,29.82,SW,225,0.0,0.0,66,0.00,,,0.00,Wunderground v.1.15,2013-07-21 01:43:00,
2013-07-20 21:45:00,84.7,72.5,29.82,SW,225,0.0,0.0,67,0.00,,,0.00,Wunderground v.1.15,2013-07-21 01:45:00,
2013-07-20 21:48:00,84.7,72.5,29.82,SW,225,0.0,0.0,67,0.00,,,0.00,Wunderground v.1.15,2013-07-21 01:48:00,
2013-07-20 21:49:00,84.7,72.5,29.82,SW,225,0.0,0.0,67,0.00,,,0.00,Wunderground v.1.15,2013-07-21 01:49:00,
2013-07-20 21:54:00,84.5,72.3,29.83,SW,225,0.0,0.0,67,0.00,,,0.00,Wunderground v.1.15,2013-07-21 01:54:00,
2013-07-20 21:56:00,84.5,72.3,29.83,SW,225,0.0,0.0,67,0.00,,,0.00,Wunderground v.1.15,2013-07-21 01:56:00,
2013-07-20 21:59:00,84.5,72.8,29.82,SW,225,0.0,0.0,68,0.00,,,0.00,Wunderground v.1.15,2013-07-21 01:59:00,
2013-07-20 22:00:00,84.5,72.8,29.82,SW,225,0.0,0.0,68,0.00,,,0.00,Wunderground v.1.15,2013-07-21 02:00:00,
2013-07-20 22:01:00,84.3,72.6,29.82,SW,225,0.0,0.0,68,0.00,,,0.00,Wunderground v.1.15,2013-07-21 02:01:00,
2013-07-20 22:05:00,84.3,72.6,29.82,SW,225,0.0,0.0,68,0.00,,,0.00,Wunderground v.1.15,2013-07-21 02:05:00,
2013-07-20 22:07:00,84.3,72.6,29.82,SW,225,0.0,0.0,68,0.00,,,0.00,Wunderground v.1.15,2013-07-21 02:07:00,
2013-07-20 22:10:00,84.3,72.6,29.82,SW,225,0.0,0.0,68,0.00,,,0.00,Wunderground v.1.15,2013-07-21 02:10:00,
2013-07-20 22:12:00,84.3,72.6,29.83,SW,225,0.0,0.0,68,0.00,,,0.00,Wunderground v.1.15,2013-07-21 02:12:00,
2013-07-20 22:15:00,84.3,72.6,29.83,SW,225,0.0,0.0,68,0.00,,,0.00,Wunderground v.1.15,2013-07-21 02:15:00,
2013-07-20 22:19:00,84.3,73.0,29.83,SW,225,0.0,0.0,69,0.00,,,0.00,Wunderground v.1.15,2013-07-21 02:19:00,
2013-07-20 22:21:00,84.3,73.0,29.83,SW,225,0.0,0.0,69,0.00,,,0.00,Wunderground v.1.15,2013-07-21 02:21:00,
2013-07-20 22:24:00,84.3,73.0,29.84,SW,225,0.0,0.0,69,0.00,,,0.00,Wunderground v.1.15,2013-07-21 02:24:00,
2013-07-20 22:27:00,84.0,71.9,29.84,ENE,57,0.0,7.0,67,0.00,,,0.00,Wunderground v.1.15,2013-07-21 02:27:00,
2013-07-20 22:28:00,83.8,71.2,29.84,ENE,60,0.0,3.0,66,0.00,,,0.00,Wunderground v.1.15,2013-07-21 02:28:00,
2013-07-20 22:30:00,83.2,71.1,29.84,ENE,69,0.0,3.0,67,0.00,,,0.00,Wunderground v.1.15,2013-07-21 02:30:00,
2013-07-20 22:32:00,82.8,70.7,29.84,ENE,69,0.0,3.0,67,0.00,,,0.00,Wunderground v.1.15,2013-07-21 02:32:00,
2013-07-20 22:34:00,82.6,71.0,29.84,ENE,69,0.0,3.0,68,0.00,,,0.00,Wunderground v.1.15,2013-07-21 02:34:00,
2013-07-20 22:35:00,82.4,70.8,29.84,ENE,69,0.0,3.0,68,0.00,,,0.00,Wunderground v.1.15,2013-07-21 02:35:00,
2013-07-20 22:37:00,82.2,70.6,29.84,NW,321,1.0,3.0,68,0.00,,,0.00,Wunderground v.1.15,2013-07-21 02:37:00,
2013-07-20 22:39:00,82.0,70.8,29.84,NW,321,0.0,1.0,69,0.00,,,0.00,Wunderground v.1.15,2013-07-21 02:39:00,
2013-07-20 22:41:00,82.0,70.8,29.83,NW,321,0.0,1.0,69,0.00,,,0.00,Wunderground v.1.15,2013-07-21 02:41:00,
2013-07-20 22:42:00,81.8,70.6,29.83,NW,321,0.0,1.0,69,0.00,,,0.00,Wunderground v.1.15,2013-07-21 02:42:00,
2013-07-20 22:44:00,81.6,70.9,29.83,NW,321,0.0,1.0,70,0.00,,,0.00,Wunderground v.1.15,2013-07-21 02:44:00,
2013-07-20 22:46:00,81.6,70.9,29.83,NW,321,0.0,1.0,70,0.00,,,0.00,Wunderground v.1.15,2013-07-21 02:46:00,
2013-07-20 22:47:00,81.6,70.9,29.83,NW,321,0.0,1.0,70,0.00,,,0.00,Wunderground v.1.15,2013-07-21 02:47:00,
2013-07-20 22:50:00,81.4,70.7,29.83,NW,321,0.0,0.0,70,0.00,,,0.00,Wunderground v.1.15,2013-07-21 02:50:00,
2013-07-20 22:52:00,81.4,70.7,29.83,NW,321,0.0,0.0,70,0.00,,,0.00,Wunderground v.1.15,2013-07-21 02:52:00,
2013-07-20 22:53:00,81.2,70.5,29.83,NW,321,0.0,0.0,70,0.00,,,0.00,Wunderground v.1.15,2013-07-21 02:53:00,
2013-07-20 22:55:00,81.2,70.5,29.83,NW,321,0.0,0.0,70,0.00,,,0.00,Wunderground v.1.15,2013-07-21 02:55:00,
2013-07-20 22:57:00,81.2,70.9,29.83,NW,321,0.0,0.0,71,0.00,,,0.00,Wunderground v.1.15,2013-07-21 02:57:00,
2013-07-20 22:58:00,81.2,70.9,29.83,NW,321,0.0,0.0,71,0.00,,,0.00,Wunderground v.1.15,2013-07-21 02:58:00,
2013-07-20 23:01:00,81.2,70.9,29.83,NW,321,0.0,0.0,71,0.00,,,0.00,Wunderground v.1.15,2013-07-21 03:01:00,
2013-07-20 23:03:00,81.1,70.8,29.83,NW,321,0.0,0.0,71,0.00,,,0.00,Wunderground v.1.15,2013-07-21 03:03:00,
2013-07-20 23:04:00,81.1,70.8,29.84,NW,321,0.0,0.0,71,0.00,,,0.00,Wunderground v.1.15,2013-07-21 03:04:00,
2013-07-20 23:07:00,81.1,70.8,29.84,NW,321,0.0,1.0,71,0.00,,,0.00,Wunderground v.1.15,2013-07-21 03:07:00,
2013-07-20 23:08:00,81.1,70.8,29.84,NW,321,0.0,0.0,71,0.00,,,0.00,Wunderground v.1.15,2013-07-21 03:08:00,
2013-07-20 23:09:00,81.1,70.8,29.84,NW,321,0.0,0.0,71,0.00,,,0.00,Wunderground v.1.15,2013-07-21 03:09:00,
2013-07-20 23:10:00,81.1,70.8,29.84,NW,321,0.0,0.0,71,0.00,,,0.00,Wunderground v.1.15,2013-07-21 03:10:00,
2013-07-20 23:12:00,81.1,70.8,29.84,NW,321,0.0,0.0,71,0.00,,,0.00,Wunderground v.1.15,2013-07-21 03:12:00,
2013-07-20 23:14:00,81.1,70.8,29.84,NW,321,0.0,0.0,71,0.00,,,0.00,Wunderground v.1.15,2013-07-21 03:14:00,
2013-07-20 23:15:00,81.1,70.8,29.84,NW,321,0.0,0.0,71,0.00,,,0.00,Wunderground v.1.15,2013-07-21 03:15:00,
2013-07-20 23:18:00,81.2,71.3,29.85,NW,320,0.0,0.0,72,0.00,,,0.00,Wunderground v.1.15,2013-07-21 03:18:00,
2013-07-20 23:20:00,81.2,71.3,29.85,NW,319,0.0,0.0,72,0.00,,,0.00,Wunderground v.1.15,2013-07-21 03:20:00,
2013-07-20 23:21:00,81.2,71.3,29.85,NW,320,0.0,1.0,72,0.00,,,0.00,Wunderground v.1.15,2013-07-21 03:21:00,
2013-07-20 23:23:00,81.4,71.9,29.84,NW,321,0.0,1.0,73,0.00,,,0.00,Wunderground v.1.15,2013-07-21 03:23:00,
2013-07-20 23:26:00,81.8,72.7,29.84,West,262,0.0,3.0,74,0.00,,,0.00,Wunderground v.1.15,2013-07-21 03:26:00,
2013-07-20 23:28:00,81.8,72.7,29.84,West,260,0.0,0.0,74,0.00,,,0.00,Wunderground v.1.15,2013-07-21 03:28:00,
2013-07-20 23:29:00,82.0,72.9,29.84,WSW,252,0.0,2.0,74,0.00,,,0.00,Wunderground v.1.15,2013-07-21 03:29:00,
2013-07-20 23:32:00,82.2,73.1,29.85,WSW,244,2.0,2.0,74,0.00,,,0.00,Wunderground v.1.15,2013-07-21 03:32:00,
2013-07-20 23:34:00,82.2,73.1,29.85,WSW,240,0.0,3.0,74,0.00,,,0.00,Wunderground v.1.15,2013-07-21 03:34:00,
2013-07-20 23:35:00,82.2,73.1,29.85,WSW,240,0.0,3.0,74,0.00,,,0.00,Wunderground v.1.15,2013-07-21 03:35:00,
2013-07-20 23:39:00,82.2,73.1,29.85,West,262,4.0,4.0,74,0.00,,,0.00,Wunderground v.1.15,2013-07-21 03:39:00,
2013-07-20 23:40:00,82.0,73.3,29.85,SW,229,0.0,4.0,75,0.00,,,0.00,Wunderground v.1.15,2013-07-21 03:40:00,
2013-07-20 23:44:00,81.8,73.5,29.85,WSW,238,0.0,4.0,76,0.00,,,0.00,Wunderground v.1.15,2013-07-21 03:44:00,
2013-07-20 23:45:00,81.6,73.7,29.85,NW,325,1.0,4.0,77,0.00,,,0.00,Wunderground v.1.15,2013-07-21 03:45:00,
2013-07-20 23:47:00,81.4,73.5,29.85,NW,325,0.0,4.0,77,0.00,,,0.00,Wunderground v.1.15,2013-07-21 03:47:00,
2013-07-20 23:50:00,81.1,73.6,29.84,SW,236,0.0,3.0,78,0.00,,,0.00,Wunderground v.1.15,2013-07-21 03:50:00,
2013-07-20 23:52:00,80.9,73.4,29.84,SW,224,2.0,3.0,78,0.00,,,0.00,Wunderground v.1.15,2013-07-21 03:52:00,
2013-07-20 23:56:00,80.1,73.0,29.84,WSW,241,4.0,5.0,79,0.00,,,0.01,Wunderground v.1.15,2013-07-21 03:56:00,
2013-07-20 23:57:00,79.9,72.8,29.84,WSW,241,0.0,5.0,79,0.00,,,0.01,Wunderground v.1.15,2013-07-21 03:57:00,